ECMWFFLT2_850_spd_000.txt.gz
Wind_Speed
19 19 19 20 17 10 10 13 15 14 14 13 12 13 11 10 12 11 9 8 9 10 9 10 13 13 13 13 14 16 17 16 17 18 21 24 26 28 31 33 35 36 37 39 41 39 38 39 40 40 39 41 42 40 39 40 38 36 35 34 32 31 32
20 20 20 21 20 15 9 11 15 14 14 13 12 12 10 11 12 10 10 12 11 10 8 11 16 18 17 16 15 16 16 15 18 19 21 25 26 27 30 31 34 39 43 45 45 42 38 38 40 42 43 43 43 42 41 40 39 38 37 36 34 33 34
17 18 18 17 20 22 16 10 13 13 12 12 11 11 11 13 12 10 13 14 12 10 8 8 12 14 15 16 15 16 13 14 18 20 21 24 26 27 29 31 32 38 45 47 46 42 38 37 39 41 43 43 42 41 41 39 38 39 39 36 36 37 37
16 14 14 13 15 21 20 14 11 12 11 11 12 11 9 11 12 10 13 14 11 10 10 11 11 11 12 12 14 13 10 11 16 18 19 22 25 27 29 31 32 36 43 46 44 42 39 37 38 41 41 41 41 39 39 39 38 38 38 37 37 39 39
16 12 13 16 15 16 16 15 13 12 11 10 11 13 11 11 11 10 11 12 9 8 10 13 15 13 12 12 13 12 10 13 16 17 18 20 23 27 29 31 33 35 39 43 43 42 39 36 36 39 39 38 38 37 37 39 38 37 37 38 39 41 40
13 13 15 20 21 17 15 14 14 14 12 10 12 15 14 13 12 11 11 11 9 8 7 9 13 14 13 14 15 14 15 18 17 14 16 19 22 27 30 32 34 34 36 39 41 40 39 37 36 38 38 36 36 36 35 35 36 37 35 35 40 43 41
11 14 16 19 23 23 19 15 15 16 14 12 13 13 13 14 15 14 13 13 11 7 4 6 11 13 13 14 13 12 15 19 16 12 13 17 21 25 28 30 32 33 33 34 37 38 39 39 38 38 39 37 35 35 33 32 34 36 35 33 37 43 43
9 13 15 17 20 21 19 16 16 17 17 17 16 14 12 13 15 14 13 14 12 6 4 3 8 9 9 12 12 13 15 15 14 13 12 15 18 20 24 26 28 30 30 31 34 36 39 42 43 42 41 38 35 33 32 32 31 33 34 33 34 41 47
9 11 12 14 16 15 13 15 18 19 22 23 20 16 12 13 18 19 16 13 12 9 6 5 8 7 7 10 13 16 17 15 15 14 11 13 16 18 21 23 25 27 28 31 35 37 40 44 47 47 45 41 37 33 32 31 30 30 33 34 33 37 43
11 11 11 11 12 12 11 15 20 23 26 26 20 14 13 14 17 20 17 13 13 15 14 14 15 13 12 14 15 14 15 16 17 13 11 13 15 16 19 21 24 25 27 31 36 40 42 45 47 48 48 46 41 37 35 32 30 30 31 33 33 32 35
12 11 11 11 12 13 14 18 23 24 25 26 21 14 14 14 13 15 15 14 17 20 18 17 16 15 15 17 16 14 13 14 14 12 14 15 13 14 17 20 22 25 27 31 36 41 43 44 44 45 47 47 44 42 41 37 33 33 33 31 30 33 38
18 16 14 15 15 16 17 19 23 24 24 26 24 20 19 16 14 15 13 12 19 23 20 18 16 13 13 15 16 18 19 20 19 15 16 17 14 13 16 20 24 26 28 31 36 39 40 41 42 42 42 42 43 44 45 42 38 38 37 32 32 38 41
21 21 20 20 18 17 17 18 21 23 24 26 26 25 24 20 17 16 13 14 20 23 22 22 18 14 14 14 16 22 24 26 24 16 14 16 16 16 18 23 27 29 29 32 35 37 38 39 40 40 39 39 40 41 42 42 41 39 37 35 36 36 34
19 22 22 22 23 20 19 20 21 22 24 27 26 25 26 25 23 22 19 18 20 20 21 23 23 22 22 20 21 24 24 25 26 18 14 15 16 18 21 24 29 33 34 35 35 36 37 38 39 40 40 40 39 39 38 38 39 37 33 32 30 26 24
16 21 23 24 25 24 23 23 23 23 24 26 26 24 24 24 24 25 26 23 19 16 16 19 23 24 25 24 23 22 21 26 29 23 16 15 16 19 23 26 29 32 34 35 35 37 38 39 39 40 39 38 36 35 34 33 33 32 28 27 24 19 19
11 16 22 25 25 25 25 25 24 25 24 22 22 21 21 21 21 23 24 22 17 14 14 17 20 20 20 21 21 22 24 28 27 20 14 13 15 16 19 23 26 30 34 36 38 39 37 37 38 38 36 34 33 31 28 26 25 24 23 22 19 18 21
8 11 16 20 21 21 21 20 22 24 23 22 22 21 21 22 20 18 18 17 14 14 16 18 19 20 21 21 22 24 22 18 15 13 11 11 11 11 13 17 22 27 28 30 33 33 30 30 32 32 29 28 28 27 24 22 20 18 18 18 17 20 24
7 9 10 12 13 14 13 14 19 23 24 25 24 23 23 22 18 15 13 12 14 16 17 17 17 17 17 18 19 19 17 12 10 11 10 10 9 10 11 14 19 24 24 23 26 28 25 25 25 23 22 21 22 22 21 21 19 17 16 16 17 21 24
7 6 8 10 11 12 12 12 16 21 23 24 25 25 25 24 22 20 18 16 15 13 13 13 13 11 9 9 12 14 15 15 14 11 10 11 11 11 12 14 18 23 25 25 27 27 24 23 22 20 19 18 17 18 17 17 17 16 16 16 17 18 19
6 6 8 10 9 10 14 13 13 16 19 21 22 23 23 23 23 21 20 19 17 14 13 11 8 6 5 6 11 14 15 16 15 11 10 11 13 15 16 17 19 21 23 26 29 29 26 24 22 21 20 19 18 19 18 18 18 17 15 15 15 13 13
6 6 8 8 8 12 15 11 6 7 9 11 12 15 17 20 21 20 18 19 19 18 16 10 7 6 6 6 10 13 13 13 14 13 10 10 12 14 16 17 19 21 22 25 27 27 27 27 27 27 26 24 24 24 23 22 21 19 17 16 14 13 13
5 6 6 6 9 11 9 3 6 7 8 9 8 9 13 15 17 19 18 18 19 17 13 10 9 7 6 8 9 10 10 9 10 12 12 12 12 14 16 18 19 21 23 24 26 27 29 31 33 33 32 31 29 28 26 23 22 20 18 16 14 13 13
8 8 6 5 8 6 2 7 10 10 10 10 6 8 14 13 14 18 18 18 19 16 12 11 11 8 9 11 7 7 6 6 7 10 12 13 13 15 17 19 21 23 25 29 31 30 31 34 37 36 35 33 31 28 25 23 21 20 19 16 15 14 12
10 10 7 5 6 4 5 9 11 12 12 8 5 11 12 9 14 18 17 17 16 14 13 13 11 9 10 7 4 7 6 6 8 10 12 15 16 17 19 22 27 31 34 34 33 32 34 37 37 35 33 31 28 25 24 22 20 19 18 16 15 15 15
10 11 9 7 6 2 6 12 13 11 9 6 9 10 5 2 7 12 15 16 14 14 16 14 9 5 3 2 8 10 10 11 12 12 14 16 17 19 24 30 35 37 38 37 34 34 36 36 33 32 30 28 26 24 23 21 20 19 17 16 15 15 16
10 9 8 8 5 3 9 15 13 6 6 6 5 4 6 5 3 6 11 14 14 14 14 11 9 9 8 10 13 14 15 17 18 17 18 20 22 27 33 37 36 35 36 37 35 34 34 31 30 29 27 26 24 22 21 19 18 18 16 14 15 16 16
7 8 7 7 5 4 12 14 8 3 4 4 5 7 6 3 3 4 7 11 15 18 18 18 17 17 17 17 20 22 23 24 25 24 25 28 31 34 36 34 31 30 32 34 33 31 30 28 27 25 23 22 21 18 16 14 13 14 14 15 16 17 18
7 9 7 3 0 5 11 10 5 4 6 6 7 5 4 9 9 10 13 16 19 23 25 25 23 22 23 23 24 27 28 29 29 29 30 32 31 30 29 27 25 27 30 30 29 28 26 25 23 20 16 14 14 13 13 11 11 13 15 16 18 18 18
3 4 4 6 6 6 8 6 5 5 5 5 5 4 8 12 12 13 17 18 19 21 24 26 25 24 23 23 24 26 26 26 27 28 27 27 26 25 25 24 22 22 24 24 23 21 20 19 18 16 12 10 11 12 12 11 11 14 16 17 19 19 19
4 5 7 9 9 7 6 6 5 5 5 7 8 9 11 13 13 15 16 18 19 18 19 23 25 24 23 23 23 23 24 24 26 28 27 25 23 23 24 25 22 19 19 20 19 17 16 14 13 12 11 10 8 9 10 9 11 15 17 18 18 18 18
5 4 6 9 10 8 8 5 4 8 11 12 13 12 13 14 15 17 17 17 18 18 18 21 24 25 26 26 24 22 23 23 24 27 27 25 23 22 23 24 23 19 18 18 16 14 13 11 9 8 9 9 9 9 10 12 16 19 19 17 18 17 16
5 5 8 13 14 12 12 8 8 11 14 15 16 15 15 17 19 20 20 19 19 19 20 21 23 25 26 26 25 24 23 22 22 24 25 23 23 22 21 21 21 19 17 15 12 11 10 9 8 8 8 10 11 12 13 16 19 21 20 18 17 16 15
6 8 10 13 14 10 11 12 13 15 16 16 17 18 18 19 21 22 23 23 23 22 22 23 27 28 26 25 26 25 23 22 21 22 22 22 21 21 20 18 18 17 15 13 10 9 9 9 9 10 11 12 13 14 15 16 17 19 20 17 15 15 14
6 7 8 11 11 6 5 10 14 15 15 15 18 21 21 20 20 21 23 25 25 25 25 26 28 28 25 25 26 25 23 22 21 20 20 21 20 19 19 18 16 14 13 11 10 9 9 9 10 11 12 13 14 14 14 14 15 16 17 15 15 15 14
5 10 12 14 15 10 7 9 13 14 13 14 17 21 22 21 20 21 21 22 23 24 23 23 23 24 23 22 24 24 22 21 20 19 19 19 18 17 17 16 15 13 11 10 8 8 8 9 9 10 12 13 14 13 12 13 14 15 15 16 16 16 14
5 13 15 18 20 16 10 12 15 16 16 18 20 22 22 21 20 20 20 20 19 19 19 19 19 19 19 20 21 20 18 17 17 17 16 16 15 14 14 14 14 12 10 8 6 5 6 7 8 9 10 11 13 12 12 13 13 14 15 18 18 17 16
9 17 18 20 23 22 19 19 19 17 16 19 21 20 19 19 17 16 17 16 15 15 16 16 16 16 17 17 17 16 14 13 12 12 12 12 12 11 10 10 10 9 7 5 4 5 6 6 6 7 8 9 11 12 13 14 15 16 17 18 18 17 17

ECMWFFLT2_850_spd_006.txt.gz
Wind_Speed
20 19 17 18 16 11 9 12 15 15 16 15 10 11 13 13 11 9 8 9 9 10 9 10 12 14 16 17 18 20 22 27 28 29 31 35 36 35 35 36 39 42 42 41 42 44 43 44 47 47 46 45 44 42 42 41 40 40 40 40 38 36 35
22 21 19 20 20 16 10 11 15 15 17 16 10 8 10 12 11 8 11 14 12 9 8 11 16 17 15 16 17 18 19 25 28 28 30 39 39 35 36 37 40 42 41 42 43 44 43 42 45 47 47 45 45 43 42 41 41 41 40 39 39 38 37
19 20 18 16 21 25 20 13 12 12 13 13 9 7 10 12 11 8 13 15 12 11 9 10 16 17 16 17 16 17 17 19 25 27 31 42 40 37 38 39 40 41 40 42 43 43 42 41 43 46 46 46 45 43 42 41 41 41 40 39 39 38 38
17 16 14 13 15 21 22 17 13 11 11 11 10 9 10 10 9 9 13 13 10 10 10 12 15 15 18 17 12 14 16 16 22 23 30 46 44 39 41 40 40 41 39 39 40 40 40 41 41 43 43 44 43 42 42 41 40 40 40 39 39 39 38
16 12 12 15 13 14 16 15 15 13 10 9 10 11 10 10 9 9 11 11 9 8 9 14 14 11 13 13 8 9 14 19 24 21 23 42 46 41 40 36 35 36 36 36 36 36 36 36 37 39 40 41 42 41 41 40 39 40 40 39 39 40 38
14 13 15 18 17 15 14 14 15 15 12 10 11 11 11 11 10 9 9 9 8 8 8 10 11 9 10 13 13 11 14 23 26 24 25 35 43 43 40 34 31 31 32 32 31 33 35 35 36 38 39 40 41 41 40 39 39 40 40 39 40 40 39
12 16 19 21 21 20 17 15 16 16 14 12 11 10 11 12 13 13 11 10 8 8 8 8 9 9 10 16 16 13 17 25 27 26 26 30 41 42 37 32 30 31 33 32 31 32 35 37 38 39 40 40 41 41 40 40 40 40 40 40 39 40 40
11 16 19 20 21 20 17 15 16 17 17 17 14 11 9 11 14 15 12 10 9 8 7 8 7 7 9 15 16 13 16 21 26 27 24 26 40 41 35 33 31 32 34 34 34 35 38 41 42 41 42 42 41 42 41 40 41 40 40 39 39 40 40
10 12 14 17 18 16 12 13 16 18 21 23 19 13 9 9 14 16 12 9 10 9 7 6 7 9 12 14 15 16 14 14 21 24 21 26 35 34 33 33 30 31 34 36 38 40 41 43 44 44 43 42 41 42 42 41 40 40 40 40 39 40 41
12 11 11 11 13 12 11 14 20 21 24 26 20 13 10 9 11 14 13 9 8 11 11 9 10 12 11 11 14 17 17 16 16 18 24 32 34 32 32 31 28 29 33 35 37 39 41 42 43 45 45 43 41 42 42 41 41 41 41 40 40 40 41
12 11 10 10 13 14 15 18 23 23 23 25 19 13 12 11 8 9 11 11 8 9 13 14 13 11 8 7 10 10 10 13 15 24 29 30 31 33 33 30 28 28 32 34 33 33 37 40 43 45 46 44 42 42 43 41 41 42 41 41 41 41 42
18 14 14 16 17 18 19 21 24 23 23 24 21 16 16 14 10 9 11 11 10 10 12 12 10 9 6 3 6 11 9 10 14 20 28 28 28 30 30 31 31 31 32 34 32 31 36 40 44 45 45 44 43 42 43 42 41 43 43 42 43 43 43
24 22 20 20 18 17 19 21 23 24 24 25 23 20 20 17 12 11 10 11 11 13 14 15 10 7 8 8 11 17 17 16 19 18 21 25 27 28 28 31 32 32 33 34 32 32 36 40 44 45 43 44 43 42 44 43 41 42 44 44 44 45 45
24 26 24 23 20 18 20 21 21 22 23 25 25 23 23 22 17 17 15 12 13 14 15 18 16 11 12 15 18 21 22 20 16 15 14 18 22 22 22 25 28 29 30 31 30 33 37 40 44 45 44 45 45 43 44 45 43 42 44 46 46 47 48
18 24 25 26 24 21 20 20 20 20 21 24 24 22 21 19 17 20 22 17 12 11 11 15 17 14 14 14 14 18 22 23 20 16 16 17 19 19 20 23 26 27 26 26 28 32 37 41 45 47 46 47 46 44 42 44 44 42 43 47 48 49 49
13 19 23 26 26 23 22 21 22 23 22 20 19 19 19 17 16 17 20 17 11 8 11 14 17 16 15 12 12 14 17 21 24 23 20 19 19 17 21 22 24 27 26 26 27 30 35 39 43 46 47 47 46 44 42 43 44 43 43 47 49 50 50
11 16 20 20 20 19 18 18 21 22 20 19 19 18 18 19 17 14 12 12 9 7 10 14 17 18 17 15 18 22 21 19 23 24 23 25 26 21 23 24 25 25 26 27 28 30 34 37 41 45 47 47 47 46 45 43 43 43 42 46 50 51 50
11 15 16 14 14 15 13 13 17 20 21 22 22 19 17 19 19 16 14 14 12 9 10 12 13 14 14 15 23 31 30 26 23 22 23 27 30 27 25 27 29 29 27 27 29 30 32 34 38 41 44 46 47 46 44 42 43 44 42 44 49 51 50
10 11 13 13 13 12 10 10 14 18 21 22 21 20 19 18 17 17 17 16 14 14 14 15 14 12 14 19 20 24 29 32 29 24 23 26 29 27 22 23 28 30 28 27 28 29 29 30 32 34 38 42 44 44 43 42 44 46 44 43 46 50 50
9 9 12 12 9 7 9 13 13 13 16 18 18 18 18 18 18 14 9 8 8 9 12 17 19 19 22 25 24 21 22 26 30 31 33 34 32 28 24 19 23 28 28 27 28 28 28 27 28 31 35 39 40 41 42 42 44 47 46 43 44 48 51
9 10 11 9 8 8 11 14 13 9 9 10 10 11 12 13 13 9 6 8 11 12 10 13 21 24 21 17 21 30 34 31 32 34 35 37 35 30 29 28 25 27 27 25 25 27 27 26 26 29 34 37 39 40 41 41 43 46 46 43 43 47 51
9 10 10 9 10 11 10 12 10 6 3 1 2 3 6 6 7 8 7 7 8 10 14 18 15 15 15 9 11 28 39 38 38 38 35 35 35 30 28 31 30 30 28 24 24 27 28 27 27 29 34 37 39 41 42 42 43 44 45 44 45 46 49
8 11 11 10 10 8 7 10 11 8 5 2 5 3 6 4 5 7 8 8 8 7 10 15 15 9 8 7 9 20 30 34 39 45 41 34 33 32 32 31 28 27 27 26 27 29 30 29 29 31 35 37 39 42 43 43 43 44 45 46 46 45 46
7 9 9 8 7 3 4 7 8 7 5 4 1 7 5 3 8 10 9 9 9 10 11 11 9 7 5 8 14 20 28 30 31 36 34 27 27 33 35 35 30 24 23 25 27 29 30 31 31 33 36 38 39 41 42 43 44 43 44 47 46 43 42
8 8 7 7 6 3 5 7 7 6 4 3 6 8 2 4 7 10 11 10 10 13 13 10 8 11 14 20 27 29 32 31 21 14 13 12 12 19 25 28 29 23 22 25 27 28 30 33 33 34 38 39 38 39 40 40 42 40 38 41 43 42 40
9 9 8 7 6 3 4 7 7 8 6 7 5 1 4 6 8 10 11 13 15 17 16 15 16 21 25 28 31 35 39 31 16 8 6 4 4 7 11 17 23 22 23 25 28 28 30 33 33 35 38 38 36 38 38 37 37 36 35 36 37 36 35
8 9 9 8 7 5 9 7 8 8 6 2 3 5 6 8 10 11 11 15 20 19 17 20 23 26 30 29 26 34 42 28 12 13 9 8 7 9 8 9 13 18 24 26 28 28 27 30 32 34 36 36 35 36 36 35 35 36 36 36 34 31 31
8 9 8 4 5 5 15 11 6 4 4 7 8 7 8 10 12 13 14 16 18 17 17 22 26 26 27 29 26 23 25 16 2 7 3 3 5 10 12 11 13 18 22 24 26 26 26 28 30 32 35 36 36 36 35 35 38 39 38 36 33 32 32
5 3 1 2 4 2 12 9 3 6 10 12 11 11 13 14 14 16 15 14 17 19 19 22 27 27 24 22 21 21 21 17 12 8 3 3 5 10 13 15 17 19 19 22 25 24 26 30 31 33 36 37 37 36 35 37 39 38 37 37 35 35 33
2 5 5 4 5 5 9 8 5 8 13 15 14 15 15 15 16 18 17 17 20 22 22 23 25 25 23 20 18 17 17 14 11 8 3 2 5 6 9 14 21 21 19 23 25 24 27 32 33 33 35 37 38 37 36 36 36 34 37 38 37 35 34
2 3 5 7 11 12 9 7 7 10 14 16 17 17 17 17 18 20 21 21 23 25 25 25 25 22 21 22 21 21 20 18 14 10 6 5 7 6 5 10 18 21 21 22 21 21 25 30 32 34 35 37 38 38 37 36 35 35 38 39 37 35 36
5 2 8 16 22 22 20 15 13 14 17 19 20 21 21 21 21 21 23 23 24 27 29 28 26 25 24 24 23 22 21 19 20 19 14 12 14 12 8 8 14 21 25 24 23 22 23 25 29 31 32 34 36 36 36 35 35 35 36 35 35 35 35
4 4 9 16 20 19 20 23 23 22 21 22 23 23 22 22 22 23 24 25 25 27 28 28 27 27 26 26 26 24 20 17 17 19 18 16 17 18 16 16 19 23 25 25 25 23 22 24 27 29 31 32 33 34 35 35 34 33 33 33 33 31 29
2 4 4 6 11 11 12 18 23 24 24 25 25 25 24 22 22 22 23 24 24 24 25 26 26 25 25 26 27 24 21 17 14 13 16 16 17 19 20 20 23 25 24 23 22 21 19 21 25 28 29 29 29 31 33 33 32 31 32 30 27 23 20
6 7 3 5 13 13 13 17 21 22 23 25 26 26 24 23 22 21 21 22 23 24 24 24 24 23 23 25 24 22 21 19 15 15 17 17 17 20 21 22 24 25 24 21 20 19 17 17 21 23 24 23 23 25 29 30 29 29 29 26 22 19 17
9 7 6 13 19 19 17 18 20 21 22 24 24 24 23 22 22 22 22 22 22 23 24 24 24 23 23 23 22 19 17 17 16 16 18 19 19 20 21 23 24 24 23 21 20 19 17 17 19 20 20 19 18 17 20 24 25 26 25 24 23 22 20
3 11 17 21 25 24 20 19 20 21 22 23 24 24 23 23 21 20 21 20 20 21 21 21 21 21 21 22 20 17 15 14 13 13 16 20 20 20 20 21 22 21 21 20 20 19 19 19 19 19 18 18 17 15 14 16 20 23 22 22 23 24 22

ECMWFFLT2_850_spd_009.txt.gz
Wind_Speed
15 13 12 14 11 5 4 9 12 8 6 5 3 4 4 3 5 5 5 6 4 3 5 5 8 13 16 17 19 21 26 35 35 32 34 37 39 40 41 43 44 45 48 49 50 51 51 51 50 50 50 49 48 47 46 45 44 43 42 41 41 42 42
19 19 14 15 16 10 4 6 8 3 4 7 4 4 5 4 6 5 6 8 5 4 4 6 8 10 14 15 14 15 19 27 31 32 36 40 42 44 44 44 45 46 47 49 50 51 51 51 51 51 50 49 48 47 46 46 45 44 43 41 41 42 43
16 18 14 12 15 16 10 5 5 6 7 8 6 4 6 6 7 5 6 8 6 6 4 7 12 10 12 14 14 14 14 18 28 36 41 43 45 45 45 46 48 48 48 49 50 51 51 51 50 50 49 49 48 47 46 45 45 44 43 42 42 43 43
13 12 10 9 9 12 12 9 7 7 6 6 6 5 4 5 6 5 6 7 5 6 5 8 12 12 12 13 14 16 14 17 29 37 40 44 45 44 46 49 51 51 52 52 52 52 52 51 50 48 48 48 48 47 46 45 44 43 43 43 43 44 44
11 10 9 10 9 9 11 10 10 8 4 3 5 6 6 6 5 4 5 6 5 5 6 7 8 9 12 12 13 15 15 20 33 40 42 45 47 47 49 50 51 52 53 53 53 52 51 49 47 46 47 48 48 48 47 46 45 44 45 45 44 44 45
8 8 11 14 14 12 11 10 11 10 5 4 5 7 8 8 7 4 4 5 6 5 6 8 9 9 9 11 12 12 14 21 33 41 44 45 47 48 49 51 51 52 53 53 52 50 48 47 46 46 47 48 49 49 48 47 45 45 46 46 46 45 45
8 8 12 18 19 17 13 11 11 10 7 6 6 5 5 6 7 6 4 5 6 6 7 8 9 9 9 12 13 12 16 22 29 36 41 43 47 49 50 51 51 51 53 53 50 48 48 48 48 48 48 49 50 50 48 47 46 46 46 46 46 46 45
9 10 9 16 20 17 13 11 11 11 10 9 7 5 4 5 6 6 6 7 7 6 8 7 7 9 8 11 16 17 18 23 28 33 37 40 45 49 50 51 51 51 50 48 46 46 47 48 48 49 50 50 50 49 48 47 47 47 46 46 46 46 47
7 9 7 10 17 15 9 9 11 14 15 13 10 7 4 5 9 8 6 6 7 5 7 7 7 7 6 6 13 18 19 23 27 29 35 43 47 49 51 50 49 47 44 42 43 45 46 47 48 49 50 50 50 49 48 47 47 47 46 46 46 47 48
9 11 7 5 9 11 8 9 12 16 18 17 12 7 5 6 9 9 7 6 6 5 11 14 15 12 7 4 5 10 16 23 27 26 33 43 47 49 49 47 44 43 40 41 44 45 46 47 48 49 49 49 49 48 48 47 46 46 46 46 46 48 49
9 9 8 4 4 9 13 14 15 15 16 18 13 7 8 7 4 6 8 7 7 7 9 16 18 14 9 6 1 3 5 13 19 25 35 44 48 48 46 44 43 42 41 42 44 46 47 49 49 49 49 49 48 47 47 47 46 46 45 46 47 48 49
13 8 8 8 8 9 14 17 18 17 15 16 15 12 12 7 4 6 9 7 8 11 9 9 12 11 8 8 5 8 10 7 8 21 36 43 45 44 43 43 45 44 43 44 46 48 49 49 49 49 48 48 47 47 47 46 46 45 45 46 47 48 49
18 15 12 13 13 12 13 16 18 19 19 17 15 15 14 9 7 9 8 6 7 10 11 10 9 7 6 9 12 12 16 15 13 20 30 34 36 36 37 40 43 44 45 47 47 48 49 49 48 47 46 46 46 46 47 47 46 46 45 46 47 48 49
18 20 18 16 15 14 13 15 17 17 19 21 20 16 12 11 10 11 9 9 8 8 10 10 9 9 7 7 12 14 15 20 21 22 26 30 33 35 37 41 45 47 47 47 48 48 47 47 48 47 47 47 48 48 48 48 48 47 46 47 48 49 50
14 19 20 19 18 17 14 12 16 18 18 20 20 17 12 9 8 9 9 9 9 7 7 8 7 7 8 5 7 11 12 17 25 24 24 28 30 32 35 39 43 44 42 41 43 46 46 46 47 47 47 48 49 49 49 49 49 48 47 48 49 51 52
6 13 19 21 20 18 17 16 15 18 16 14 13 14 14 12 10 8 8 8 8 7 6 5 7 5 7 6 6 9 12 13 21 25 26 29 32 35 38 40 40 39 39 40 42 43 45 46 47 47 47 48 49 50 50 50 50 49 49 49 51 52 53
4 7 15 22 19 15 16 17 13 10 10 10 11 11 13 16 13 7 5 6 6 5 5 6 7 6 6 7 8 10 10 9 13 20 27 31 33 35 40 42 42 42 41 41 41 40 41 43 44 45 47 49 51 52 52 52 51 50 50 51 52 54 54
5 7 9 12 14 13 12 11 9 9 9 10 10 9 9 11 11 9 8 8 6 4 5 7 9 9 10 13 14 15 15 13 11 12 17 23 27 34 40 41 42 44 43 40 36 33 35 38 39 42 47 49 51 52 53 53 52 51 52 52 53 55 55
4 4 4 5 9 9 6 6 8 12 13 11 9 8 7 4 2 5 10 10 6 2 1 2 2 3 10 13 13 14 18 22 24 23 23 22 23 32 43 44 43 44 43 40 37 33 33 36 36 39 45 47 49 51 53 53 53 53 54 54 55 56 57
4 4 4 5 5 2 3 3 7 7 7 7 5 5 5 3 7 5 1 1 2 6 7 7 10 11 8 4 3 5 11 18 25 29 31 30 26 26 35 43 46 49 47 42 38 35 35 37 37 39 42 44 47 50 52 53 54 55 56 56 56 57 58
5 5 4 3 3 3 4 4 3 3 3 2 3 2 2 4 7 8 6 7 8 8 8 11 16 17 12 6 6 5 5 9 14 18 21 23 21 20 24 31 37 43 45 42 37 36 38 39 38 39 39 42 47 50 51 53 55 56 58 59 58 58 59
1 3 3 3 4 5 5 3 1 3 7 9 7 5 3 5 6 8 10 9 10 8 7 11 16 15 9 4 7 16 21 20 17 18 19 21 24 25 25 25 28 31 34 35 34 36 39 41 41 40 40 43 48 50 51 53 56 57 59 60 61 61 61
2 4 2 5 4 3 3 3 2 0 6 10 7 3 3 5 6 10 12 11 9 8 7 10 12 10 6 2 7 20 28 26 23 23 23 23 24 28 28 27 27 29 34 37 35 36 39 40 40 41 41 44 48 52 53 54 56 58 60 62 63 63 63
2 5 1 3 1 1 2 0 1 2 7 11 5 2 1 4 6 13 14 11 9 9 10 12 10 6 3 3 11 22 26 23 23 20 19 21 20 20 25 27 24 24 33 43 43 42 42 40 39 42 43 45 48 51 53 56 58 60 62 64 65 65 64
4 4 1 2 1 1 3 6 8 6 8 10 3 4 1 3 8 15 16 12 12 14 14 12 7 3 4 7 13 20 22 21 21 17 13 12 12 12 13 21 24 20 27 41 46 44 41 37 37 41 43 46 49 51 53 55 58 61 64 64 63 63 62
4 4 2 1 2 5 4 10 14 12 7 4 2 3 8 10 12 16 18 16 14 16 16 14 10 8 10 14 16 18 18 17 15 13 12 8 4 4 8 4 9 11 22 38 45 42 37 35 37 41 44 47 49 50 54 56 57 59 61 62 60 59 60
3 3 3 2 2 5 4 6 8 8 2 3 3 8 12 14 16 17 18 17 15 15 17 16 15 15 17 20 19 17 15 14 13 11 10 9 5 5 7 7 5 5 15 29 35 32 29 30 34 38 42 48 51 51 51 53 55 56 55 56 56 56 55
3 2 2 1 5 9 5 5 2 1 5 9 13 13 10 12 16 17 18 18 16 17 18 18 19 20 21 22 21 18 15 12 12 11 7 5 6 6 7 7 3 3 9 17 20 21 21 23 27 27 25 30 40 49 51 50 51 52 52 51 52 52 51
1 3 5 6 14 22 13 11 15 12 14 19 21 20 15 14 15 18 19 19 18 18 19 20 22 22 21 21 21 19 17 13 10 10 8 6 6 6 6 7 8 9 7 9 13 15 16 19 24 27 25 22 25 32 42 47 47 43 42 43 44 44 45
3 4 4 7 16 29 23 6 22 22 20 22 24 24 22 20 19 21 22 22 23 22 21 22 24 22 20 21 21 19 17 14 10 7 6 4 5 6 6 6 8 11 13 15 16 16 16 17 19 23 27 26 22 19 25 39 45 43 40 40 38 37 39
4 2 5 7 10 25 30 7 21 26 24 26 27 26 25 23 23 25 25 25 26 26 24 24 25 23 21 21 22 21 20 19 16 12 7 4 4 5 6 6 6 7 12 16 18 17 16 16 17 18 19 19 16 14 20 31 41 47 47 43 39 34 31
3 3 5 7 9 22 32 16 15 26 26 28 29 27 26 25 25 26 26 26 26 26 26 25 25 25 24 23 22 23 22 21 20 18 15 10 5 3 3 6 7 6 6 9 12 14 12 9 9 12 14 13 13 16 20 24 32 40 43 42 37 32 28
5 4 4 8 10 15 25 23 14 23 28 29 29 27 26 26 26 26 26 26 26 26 25 25 26 26 26 24 23 23 22 21 19 18 18 15 10 8 6 3 4 5 4 5 8 10 8 7 8 9 11 17 20 20 18 17 20 27 30 31 31 31 31
2 1 4 8 6 4 13 20 18 19 25 29 29 28 27 26 25 25 26 26 26 26 25 25 26 25 24 23 23 23 23 22 20 18 18 17 14 12 10 10 9 7 5 3 3 5 7 9 13 15 13 15 22 24 20 15 13 16 20 24 29 34 36
4 7 10 10 6 3 8 14 15 16 20 27 30 28 28 27 25 25 26 26 25 25 24 24 25 25 23 22 22 23 23 23 23 21 20 19 18 15 11 10 13 14 15 12 8 9 12 13 14 16 14 13 18 20 18 16 15 17 23 29 34 37 38
8 12 14 12 6 2 4 9 12 13 17 24 27 26 26 26 25 25 26 26 25 24 23 23 23 23 22 22 22 22 22 22 22 23 23 20 19 18 16 13 12 11 13 14 14 14 17 20 21 21 19 17 18 18 17 20 24 29 33 37 37 37 36
12 18 18 12 7 7 8 10 10 10 15 21 24 24 24 24 24 24 25 24 24 23 23 22 21 20 20 21 21 21 21 22 21 21 23 22 19 18 18 16 15 14 14 16 16 16 19 23 23 22 20 21 23 24 25 28 32 33 34 34 34 32 31

ECMWFFLT2_850_spd_015.txt.gz
Wind_Speed
10 14 11 11 11 6 3 5 8 7 6 6 6 6 4 1 4 5 4 4 5 3 6 5 7 11 12 16 20 22 27 31 30 29 33 40 43 46 48 51 54 55 55 56 57 58 59 59 59 60 61 61 61 60 58 58 57 57 57 57 56 55 53
13 17 12 8 12 10 5 5 8 4 3 6 5 3 5 5 6 5 3 5 5 3 6 4 5 8 10 12 13 16 22 24 23 27 35 41 44 48 50 52 53 54 55 56 57 58 59 60 60 61 62 62 61 60 59 58 57 57 57 57 56 55 54
11 12 10 6 8 12 8 5 7 6 4 7 5 4 6 7 6 5 3 5 6 6 6 4 6 9 10 11 11 13 17 17 20 26 33 39 44 46 47 49 50 52 55 57 58 59 59 59 60 61 61 60 60 59 59 58 57 56 56 55 55 55 55
8 6 7 7 8 10 7 3 5 5 4 6 7 4 4 4 5 5 3 4 6 6 6 7 10 11 12 11 11 12 14 17 23 28 32 37 42 45 46 48 50 53 56 58 59 60 60 60 60 60 59 58 58 59 59 58 57 56 55 55 55 55 54
7 4 5 10 11 9 7 5 7 7 3 3 5 4 3 4 4 4 3 6 7 5 5 9 11 11 12 12 11 12 14 20 28 32 34 38 43 46 48 49 51 54 56 58 59 59 60 60 59 58 56 56 58 58 58 58 58 57 56 56 56 55 54
5 5 7 12 15 13 10 8 8 9 5 4 5 6 4 4 5 5 5 8 9 5 5 8 10 10 10 11 12 10 14 24 31 35 38 41 43 46 48 51 53 55 57 58 58 58 58 57 56 55 55 56 57 57 57 58 57 57 57 56 56 56 54
6 7 9 12 15 15 12 10 8 7 5 5 6 8 5 4 4 2 3 6 9 5 7 9 9 9 10 11 12 11 15 25 31 35 41 43 44 46 49 51 53 55 56 58 57 56 56 55 55 55 55 55 56 57 57 57 57 58 57 56 56 55 54
5 6 7 5 7 11 10 10 9 8 7 7 8 6 5 5 4 2 2 7 7 4 6 9 9 10 11 12 14 13 15 21 27 33 38 39 41 45 47 48 52 53 53 53 53 53 54 55 56 55 55 56 56 56 56 57 58 58 57 56 56 55 54
6 5 5 5 4 5 5 6 10 11 12 11 7 2 3 4 7 7 6 7 6 4 3 4 7 9 9 9 14 17 17 19 25 31 34 36 38 42 43 45 48 50 49 48 49 51 53 55 55 55 55 56 56 56 57 58 58 58 57 56 56 55 55
7 5 5 6 5 4 3 5 10 14 17 17 10 4 4 6 6 8 8 7 6 5 3 4 8 9 9 9 12 17 19 22 26 29 33 36 38 40 43 45 48 49 48 48 49 51 53 54 55 55 55 55 56 57 57 58 58 57 57 56 56 55 55
6 4 6 8 5 5 10 11 11 13 18 19 14 8 8 7 4 6 8 5 3 4 3 5 9 9 9 9 9 11 18 24 27 30 34 37 39 42 44 46 48 47 46 47 48 50 53 54 55 56 55 55 56 56 57 57 57 56 56 56 56 55 55
7 7 12 14 13 11 13 15 14 14 15 17 17 15 9 8 7 9 7 7 6 7 7 8 10 9 8 10 10 11 17 23 27 29 31 33 35 39 41 42 44 44 45 47 48 50 52 53 54 55 55 55 56 56 56 56 56 56 56 56 56 55 55
13 12 14 14 13 13 12 13 17 17 15 16 20 18 11 11 11 12 8 10 9 8 8 9 10 9 9 11 12 9 11 17 22 26 29 31 33 37 39 41 43 45 47 48 49 50 52 52 53 54 54 54 54 54 55 55 55 56 56 55 55 55 55
15 14 13 12 11 11 12 13 16 18 18 19 20 18 14 14 17 13 9 12 12 9 9 10 11 13 11 10 9 8 12 16 19 22 27 31 34 38 40 42 44 47 48 48 49 51 51 51 53 54 54 54 55 55 55 55 55 55 55 54 55 55 55
12 12 11 12 13 12 11 13 14 17 20 21 21 19 14 12 14 12 8 10 9 8 8 9 12 14 10 7 7 11 16 19 18 19 24 29 33 37 39 41 43 46 48 48 48 48 50 52 53 55 55 56 56 55 55 55 55 55 54 54 54 55 54
8 8 11 16 19 15 11 13 16 17 18 18 17 15 12 12 12 11 9 8 7 8 8 7 8 9 8 7 8 12 18 19 18 20 24 28 32 35 36 38 42 45 47 48 48 49 51 52 53 55 56 55 55 55 55 56 55 54 53 53 54 54 54
6 9 12 15 15 12 10 13 16 16 14 13 12 11 11 13 13 12 12 12 9 9 8 6 6 9 9 8 6 8 13 15 16 20 23 26 30 32 34 36 39 44 46 49 51 52 53 54 54 55 56 55 55 55 56 56 54 52 52 53 54 54 53
6 12 13 11 7 6 9 8 8 13 14 12 11 11 11 12 11 8 9 11 11 10 8 9 10 10 7 4 2 2 2 6 12 17 20 23 25 27 31 34 37 42 46 48 50 52 53 54 55 55 55 55 56 55 55 54 52 52 52 52 53 53 52
5 8 8 6 4 7 8 9 3 9 13 12 10 9 9 9 10 6 5 7 11 10 7 8 10 9 10 9 9 9 7 2 5 11 15 17 19 21 25 29 33 38 42 44 47 49 51 52 52 52 52 53 53 53 52 51 51 52 52 52 53 53 52
4 4 3 4 6 9 14 11 7 7 4 4 7 7 6 6 6 6 6 8 9 7 6 9 13 16 16 13 12 12 10 8 6 3 4 9 13 16 19 24 27 32 36 38 40 44 47 49 50 50 50 51 52 52 51 50 51 52 52 53 53 52 52
3 3 4 5 8 12 11 5 4 7 6 4 5 7 7 5 4 6 8 8 7 6 8 14 19 17 12 8 9 12 13 12 11 10 7 2 4 9 15 19 22 25 28 31 33 38 43 45 47 47 47 48 50 50 50 50 51 51 52 53 53 53 53
3 3 5 4 5 6 4 3 8 8 8 10 8 4 5 6 3 3 6 7 8 9 11 15 17 11 7 3 3 9 12 12 11 12 12 10 5 1 6 12 17 20 23 25 28 32 37 41 43 43 43 45 47 48 49 50 51 51 52 53 53 53 53
4 3 3 3 3 5 4 8 14 17 19 16 6 1 5 6 4 2 4 5 4 8 13 15 12 7 5 3 5 7 9 11 11 12 12 11 10 7 3 2 8 14 19 22 24 27 31 35 38 39 40 42 44 47 49 49 50 51 52 53 53 52 51
5 3 3 3 4 4 6 11 16 24 28 16 3 5 7 5 5 5 4 5 3 6 12 11 6 4 5 6 3 4 6 9 11 11 11 11 10 10 8 6 3 5 11 18 23 26 28 31 34 37 39 40 43 45 46 48 49 50 50 50 49 48 48
5 4 2 3 4 4 7 14 21 29 26 8 8 7 7 2 3 3 5 7 6 9 11 9 6 6 7 8 5 4 7 8 10 10 10 10 10 10 10 10 9 7 4 8 15 21 24 26 30 35 38 40 43 44 45 47 49 48 47 46 44 45 46
2 3 2 3 5 2 10 20 24 22 11 3 5 8 10 4 3 5 9 11 13 17 18 17 15 14 12 11 10 10 11 10 10 10 9 8 8 8 9 9 9 9 8 6 6 11 17 22 27 32 34 36 39 42 44 47 48 47 45 44 44 44 47
1 2 1 3 5 4 14 21 17 10 5 4 9 13 10 6 6 6 10 12 16 22 24 23 21 18 15 13 13 13 12 11 10 10 9 8 7 7 7 8 8 9 9 9 9 8 9 13 20 26 29 30 32 36 41 45 46 45 45 45 45 46 47
3 4 4 3 4 7 15 14 7 5 9 13 14 10 7 7 7 4 8 12 17 23 26 24 21 18 17 15 14 13 12 10 9 8 7 7 6 6 7 7 7 7 7 8 9 9 10 9 10 15 21 25 27 31 36 39 41 43 44 45 45 45 45
2 3 4 2 2 9 13 11 10 11 14 17 19 18 15 14 11 6 7 12 17 22 25 24 22 19 18 16 14 13 13 11 9 8 7 6 5 6 7 8 8 7 5 6 6 7 8 10 10 10 13 18 23 28 32 35 38 41 43 44 44 44 44
0 1 2 2 2 8 10 11 11 12 14 18 20 22 23 22 17 10 8 10 13 16 20 22 23 21 19 18 17 15 13 11 10 8 7 5 5 5 7 9 10 9 8 6 5 5 6 7 9 10 11 13 17 21 25 29 33 37 40 42 43 44 45
3 2 3 4 3 4 9 12 12 13 14 14 16 19 21 21 19 14 10 12 15 16 19 22 23 21 19 18 18 15 13 12 10 8 7 6 5 5 5 7 9 10 10 9 7 5 4 5 7 9 11 13 15 17 20 24 28 31 35 39 41 42 44
4 3 3 3 5 5 8 10 11 13 13 11 12 14 14 13 14 12 9 11 18 20 21 22 22 21 19 17 17 15 14 12 11 10 9 8 7 6 6 6 7 8 9 10 9 7 6 5 6 8 10 12 14 16 18 22 25 28 31 35 37 40 42
3 4 3 2 3 2 5 8 8 7 7 8 9 10 10 9 8 6 6 11 18 22 22 22 22 22 20 18 16 15 14 12 11 10 9 8 7 7 7 6 6 6 7 8 9 10 9 8 7 8 9 12 13 14 16 20 23 26 29 32 34 36 38
3 4 4 5 5 3 3 6 7 5 6 8 9 11 12 9 6 6 8 13 19 22 23 23 23 24 22 19 17 16 15 14 12 10 9 8 7 8 8 8 9 8 8 7 7 7 8 9 9 9 10 12 14 15 17 19 22 25 28 31 34 36 38
5 6 9 9 6 5 9 11 10 8 8 8 11 13 14 11 7 7 11 18 22 24 24 24 24 25 24 21 19 19 18 16 14 12 10 9 8 8 8 8 9 10 10 10 9 7 7 8 10 10 11 12 13 15 16 18 20 22 24 28 32 36 38
5 9 13 12 7 6 11 14 13 12 9 8 10 13 14 12 10 10 14 19 22 23 25 24 23 23 24 22 21 21 19 17 14 13 11 10 9 8 7 7 8 9 10 11 11 10 10 10 11 12 12 11 12 13 15 16 17 18 20 23 27 32 36
3 9 11 9 7 8 11 12 14 15 13 11 11 12 12 11 11 11 14 17 19 21 23 23 22 21 21 21 21 21 20 18 15 12 11 11 11 10 9 8 7 7 7 7 8 9 10 10 10 10 9 8 9 11 12 13 13 14 16 18 21 25 29

ECMWFFLT2_850_spd_021.txt.gz
Wind_Speed
15 18 15 14 13 7 6 9 11 8 7 8 6 3 1 1 5 5 5 7 5 4 8 8 8 7 9 11 12 13 17 19 16 16 20 25 29 33 37 42 49 53 54 54 55 55 53 52 50 50 51 51 51 51 50 50 50 51 51 50 50 49 47
13 16 17 16 15 11 7 9 10 7 6 8 7 5 3 5 8 5 5 10 8 5 6 4 9 10 10 11 11 13 15 16 16 17 21 27 30 33 39 45 49 51 53 54 55 56 56 54 52 51 50 50 50 50 50 50 49 50 51 51 50 50 49
10 11 14 12 12 11 6 7 10 8 5 8 7 6 6 8 8 5 5 8 9 9 7 2 6 10 11 11 11 12 13 14 16 19 21 26 29 30 36 42 45 49 52 53 55 56 57 57 55 53 51 50 50 50 51 51 50 49 49 49 50 50 49
10 10 11 10 10 8 3 7 11 6 4 6 8 6 4 5 7 5 3 5 6 9 10 9 9 9 10 10 9 10 13 15 18 21 24 26 29 32 37 40 43 48 51 53 54 56 57 57 57 55 54 53 52 51 51 52 52 51 51 51 50 50 49
9 9 9 11 13 10 7 8 11 8 4 3 5 5 4 4 5 4 4 6 4 2 6 13 16 13 11 11 10 9 12 17 20 25 29 29 31 35 38 39 42 46 49 50 52 54 55 56 56 55 55 55 54 53 52 52 52 53 53 53 52 50 49
7 7 10 15 17 16 14 11 11 12 9 6 6 7 6 6 5 4 4 7 4 2 3 8 12 12 10 11 10 9 12 17 22 28 33 32 30 33 36 39 41 43 45 48 49 50 53 54 55 55 55 55 55 56 55 53 53 53 53 53 53 51 49
3 4 8 10 9 10 12 11 11 13 11 9 8 7 6 8 6 2 2 7 4 3 5 7 9 10 11 11 10 10 12 17 23 29 33 30 27 28 30 33 36 38 42 45 45 47 51 53 54 55 54 55 56 57 57 56 55 54 54 53 52 51 49
2 3 5 5 3 5 9 9 10 11 12 12 11 7 4 6 7 5 4 8 4 2 2 4 5 5 7 8 9 10 13 17 22 27 30 29 27 25 23 24 29 33 37 40 42 45 48 51 52 54 55 56 57 57 57 57 57 56 55 54 54 52 50
4 5 7 7 5 4 4 4 4 5 11 16 14 6 2 5 10 11 9 8 3 2 1 2 3 4 5 7 9 10 12 14 17 21 24 25 26 26 24 24 26 29 33 37 40 43 45 47 50 52 54 56 56 57 57 57 57 56 56 55 55 54 52
10 8 7 6 4 2 1 1 1 2 6 13 14 7 4 6 9 11 12 8 2 3 1 3 4 4 5 8 10 9 12 15 17 19 21 21 20 21 22 25 27 28 30 33 36 40 43 46 48 50 52 54 55 56 56 56 56 55 55 56 56 55 54
2 2 1 2 3 1 2 2 3 3 3 5 7 8 8 6 5 9 13 10 5 4 4 3 4 5 6 8 8 8 12 18 20 21 22 21 20 20 18 21 25 26 28 32 34 38 41 44 46 48 50 51 53 54 55 55 55 55 55 55 56 56 55
3 3 4 4 3 2 3 5 7 6 4 4 6 9 7 5 7 11 11 10 11 9 5 3 4 5 6 6 7 9 12 16 17 17 19 19 20 21 20 20 23 25 28 31 33 35 38 42 44 46 48 50 51 51 52 53 53 53 54 55 55 56 55
4 5 6 3 2 3 4 6 9 9 8 7 8 9 8 6 9 10 6 8 11 9 9 10 8 5 6 8 10 11 13 16 17 14 14 15 16 18 19 20 21 23 26 28 30 32 35 39 41 43 46 48 49 50 50 51 52 52 53 54 54 54 55
5 6 6 3 1 3 6 8 10 11 12 11 11 11 11 11 11 12 11 10 11 8 8 12 13 12 12 14 13 14 17 20 20 17 13 12 14 16 16 16 18 20 22 25 27 29 32 36 39 42 44 47 48 49 50 51 51 52 52 52 52 53 54
5 4 5 4 3 5 9 10 11 11 12 12 12 11 11 11 10 11 14 14 10 5 4 9 13 12 11 12 13 18 23 24 21 19 17 14 14 15 15 15 16 17 18 21 24 27 30 34 37 40 42 44 46 48 50 51 50 51 52 51 50 51 53
5 3 4 7 9 10 12 12 12 12 12 11 9 9 9 10 8 9 12 12 8 4 4 8 11 10 8 9 10 17 25 25 21 20 20 18 18 18 19 20 20 20 19 19 20 23 27 31 35 38 40 42 45 47 49 50 49 50 51 50 50 50 52
4 3 5 9 10 10 9 8 6 8 9 8 9 9 9 10 9 9 9 7 6 5 7 10 11 11 10 10 13 20 24 23 22 23 22 22 24 24 24 26 27 26 24 22 19 19 21 26 31 34 38 41 43 45 47 49 49 51 51 50 49 50 51
4 5 6 8 8 8 4 1 1 3 6 6 6 8 9 9 9 9 10 9 8 7 8 9 10 13 17 18 19 24 26 23 23 24 25 25 26 27 27 28 30 28 26 24 22 19 18 21 26 31 36 40 40 41 45 47 47 49 50 50 50 50 51
4 4 4 6 8 5 1 3 1 4 5 4 6 9 9 7 6 8 11 12 12 10 8 10 13 19 25 24 18 18 23 23 21 23 25 26 26 27 27 28 29 28 26 26 25 22 17 17 22 29 33 37 39 40 42 44 45 46 47 48 49 50 50
3 2 4 7 3 7 10 3 3 1 1 2 5 7 3 3 7 6 7 9 11 11 10 11 16 20 21 18 15 16 20 20 20 21 23 24 26 26 25 26 28 28 27 27 25 21 16 14 19 25 29 33 37 40 41 43 43 44 45 46 47 48 49
5 4 7 8 5 11 14 6 4 3 1 1 2 3 1 3 6 6 7 9 11 12 11 11 13 13 11 10 11 16 19 19 21 21 21 22 23 22 23 24 26 27 26 25 22 17 14 13 16 19 24 29 33 37 40 42 42 43 44 45 46 47 48
5 5 7 8 8 9 7 3 5 2 2 2 2 2 2 1 6 9 8 9 11 11 12 13 8 5 7 7 8 15 21 20 18 19 19 19 18 19 20 22 24 25 23 20 17 13 10 10 11 14 19 24 28 33 37 39 41 42 44 44 45 46 47
6 7 7 8 8 5 3 7 5 2 2 5 5 4 2 2 8 12 10 9 12 11 12 13 7 4 8 7 5 13 20 18 16 16 16 14 13 15 16 17 19 19 17 15 13 9 7 6 8 10 14 18 24 29 33 36 38 40 42 43 43 45 46
7 7 7 7 6 3 2 5 3 2 3 7 5 5 2 3 7 11 10 11 11 11 13 13 7 6 7 4 4 6 13 14 13 13 12 10 10 10 10 11 12 11 10 11 11 9 8 7 8 8 10 14 19 24 28 32 34 37 38 39 40 41 43
8 9 8 7 5 4 2 3 1 1 4 5 5 5 1 2 6 9 10 13 12 11 13 12 9 7 5 5 5 3 9 10 9 10 10 9 9 8 7 7 7 6 8 9 9 8 8 9 9 9 9 11 15 19 23 27 29 31 33 34 35 38 40
7 7 7 7 5 2 2 3 2 2 4 5 4 2 1 5 8 8 10 13 12 10 12 14 13 12 8 5 3 4 8 8 8 8 8 9 10 11 11 10 9 9 8 8 8 9 9 9 9 9 9 9 11 15 19 22 25 26 27 28 31 33 35
7 7 8 8 5 1 3 1 3 5 5 3 3 3 2 4 7 9 10 12 12 10 11 13 13 11 7 4 3 4 6 7 8 7 7 8 9 11 13 14 13 12 11 10 10 10 10 9 9 9 10 10 11 14 17 20 23 24 25 26 28 30 32
6 8 7 4 2 5 10 10 6 3 1 1 1 3 3 3 5 8 9 11 12 11 9 9 9 6 4 2 1 2 4 6 6 6 6 7 7 9 12 14 15 14 13 13 13 12 11 10 9 10 10 10 12 13 16 18 20 21 22 24 27 29 30
4 6 7 9 13 15 16 16 13 8 3 1 2 2 1 3 5 7 9 11 12 10 7 6 5 4 2 1 3 3 4 5 5 5 5 6 7 8 10 13 15 15 15 15 14 14 13 11 10 10 9 10 11 12 14 16 17 18 19 21 23 25 27
7 8 10 14 20 21 18 18 16 11 6 3 3 1 1 4 7 8 8 10 10 9 6 3 2 2 0 3 5 5 5 6 6 6 6 6 7 8 9 11 13 15 16 15 15 15 14 12 11 10 9 8 9 10 10 11 13 14 16 17 19 22 24
7 6 7 11 15 17 17 18 18 15 10 6 2 2 5 8 8 8 8 8 8 7 5 3 2 2 1 4 6 6 7 7 8 8 8 8 9 9 9 9 10 12 15 15 15 15 15 14 13 11 10 9 8 7 6 6 7 9 10 12 14 17 21
6 7 12 16 21 24 25 24 23 20 14 8 3 2 8 11 10 8 8 7 6 6 7 6 4 4 4 5 7 8 9 9 10 11 11 10 10 10 9 9 8 9 12 13 14 14 14 13 12 11 10 9 8 6 5 4 4 4 6 7 9 11 15
8 11 14 17 20 22 24 25 26 24 17 7 3 1 7 14 12 7 5 6 7 7 8 8 7 8 8 9 10 11 12 12 11 11 11 12 12 11 10 10 10 9 11 13 13 13 13 12 10 10 9 8 7 6 5 4 2 1 2 3 4 6 8
8 8 8 8 9 10 12 17 22 25 18 8 2 1 6 15 14 7 3 5 8 7 7 9 10 10 10 10 10 10 12 14 13 11 11 12 14 14 13 12 11 11 12 14 15 16 15 13 11 11 10 9 8 6 5 5 4 3 2 1 0 2 4
12 13 12 13 12 13 16 21 26 29 26 13 3 1 3 11 16 9 4 6 10 10 10 10 10 10 10 10 10 10 11 14 15 13 11 13 16 17 16 14 13 12 13 15 16 17 17 16 15 15 14 13 11 10 9 8 7 7 6 5 4 3 2
19 21 22 20 19 21 25 27 29 31 31 20 7 3 2 6 14 11 5 7 10 11 12 11 10 9 9 9 10 10 10 12 15 15 14 14 15 17 17 17 15 14 13 14 15 16 16 17 18 18 17 17 16 15 15 15 14 13 13 12 12 11 10
22 25 26 23 25 29 30 31 33 35 36 28 13 9 4 4 13 12 7 7 9 9 10 11 11 10 10 10 9 9 10 11 15 16 15 15 15 16 18 18 17 16 15 14 16 17 17 19 20 19 19 20 19 18 18 18 17 17 16 16 16 15 15

ECMWFFLT2_850_spd_024.txt.gz
Wind_Speed
18 21 20 19 15 9 9 12 12 11 10 9 7 5 4 4 7 7 8 9 7 5 5 7 9 9 11 13 14 15 17 19 19 19 20 22 24 26 28 31 32 33 34 35 38 41 43 45 46 47 47 47 48 48 48 48 47 47 47 47 47 46 46
19 22 22 20 19 13 8 10 13 10 10 10 8 7 6 7 9 7 9 12 10 8 6 8 14 15 12 13 13 14 15 15 17 18 19 21 23 25 28 30 30 31 33 35 37 39 43 47 49 49 49 48 46 46 47 47 47 48 48 47 47 46 46
18 20 19 16 20 21 12 8 11 11 10 10 8 7 8 9 9 7 10 13 10 9 6 4 11 16 15 15 14 13 14 15 16 18 20 21 22 22 24 26 27 29 33 35 37 38 42 46 49 50 49 48 46 45 45 45 47 48 47 47 47 47 46
16 15 14 12 15 19 15 10 10 10 8 8 9 8 7 8 8 7 8 10 8 8 9 8 9 10 12 13 13 13 14 15 18 19 19 21 22 23 24 25 27 30 33 35 36 37 38 40 44 46 45 46 47 46 45 45 46 47 47 47 47 48 47
16 12 12 14 14 15 14 12 12 11 9 6 7 9 9 8 7 6 6 7 4 1 5 11 13 12 12 12 12 12 13 16 18 18 19 20 22 25 26 26 28 30 32 33 33 34 34 34 36 38 40 43 44 44 45 46 46 46 47 48 48 48 48
13 12 13 17 17 16 15 12 12 13 11 9 8 9 10 9 8 7 6 6 3 3 3 4 7 9 11 12 12 11 13 16 17 16 17 18 20 23 24 24 25 26 28 28 29 30 30 31 33 36 38 39 41 43 45 46 46 46 46 47 48 48 48
10 12 15 18 19 19 17 14 13 13 12 11 9 7 8 8 9 8 7 7 3 4 4 2 2 4 7 8 10 10 11 14 14 14 14 13 13 16 17 18 19 20 21 22 24 27 30 32 34 35 36 38 41 45 45 43 45 47 47 46 47 47 48
7 8 12 15 18 18 17 15 14 14 14 13 10 8 6 6 9 9 7 8 4 4 4 3 3 5 5 6 7 8 8 8 9 10 9 7 9 11 12 15 16 17 18 20 24 27 31 33 34 34 34 36 40 44 46 45 47 47 46 46 46 46 47
7 8 9 13 16 15 12 13 17 17 18 18 14 10 8 7 9 10 8 7 3 4 4 3 3 5 5 4 5 5 5 4 5 6 4 4 7 9 11 13 15 17 19 21 25 28 31 34 34 34 35 35 36 39 43 46 47 46 45 45 46 47 46
11 11 9 8 11 13 11 12 18 20 21 21 15 10 10 9 9 10 9 6 3 7 5 5 5 6 4 3 3 3 3 4 3 3 2 2 5 8 10 12 14 17 20 23 25 27 31 33 33 34 35 35 34 35 37 39 39 40 42 44 45 47 47
4 2 2 3 2 11 16 16 16 16 19 21 16 11 10 9 8 10 10 8 4 7 8 8 7 6 4 2 2 2 1 1 1 2 3 4 5 6 8 10 13 16 18 21 24 26 28 30 30 32 34 35 34 34 34 34 34 35 38 42 45 47 48
3 4 5 6 4 6 14 16 16 15 16 18 16 13 11 8 8 9 10 11 11 9 9 8 6 3 2 2 4 4 2 5 6 5 5 8 8 6 8 10 13 15 17 19 21 23 25 27 29 30 32 33 34 35 34 33 33 34 36 40 44 46 48
1 2 3 3 2 1 3 8 12 13 15 16 16 15 13 11 9 7 6 10 13 12 11 10 7 6 6 8 10 11 11 12 12 10 11 13 11 7 6 9 10 12 13 15 16 19 21 24 28 30 31 33 34 36 36 35 35 35 36 39 43 46 48
2 2 2 1 1 1 2 5 7 8 11 13 14 15 15 13 11 9 8 8 9 9 10 10 10 10 11 12 14 16 17 19 19 18 18 18 16 13 9 7 8 7 7 10 11 13 16 20 26 30 31 33 34 35 35 35 36 36 36 39 43 46 48
4 4 3 2 3 4 5 8 8 9 10 11 11 12 12 12 12 13 14 13 10 7 7 8 10 11 11 11 13 15 17 19 21 21 22 21 18 18 14 10 10 8 7 9 11 11 13 16 22 27 31 33 34 33 33 35 37 37 37 39 43 46 47
5 5 5 5 4 6 10 12 12 12 12 12 12 11 11 12 13 14 15 14 11 8 9 11 12 13 14 14 15 17 18 19 20 21 22 21 20 20 18 14 15 16 15 15 16 16 15 15 18 23 28 32 34 34 34 35 35 35 36 39 43 46 46
4 5 4 4 3 7 11 12 14 15 14 12 12 12 13 14 13 12 13 11 8 8 9 11 10 11 13 13 15 17 17 18 21 22 22 23 22 22 20 16 16 19 20 19 19 19 19 17 17 19 23 28 32 34 34 33 31 32 36 39 42 45 45
4 4 2 3 6 9 6 2 7 14 15 15 16 15 14 14 13 11 11 9 8 8 8 8 8 9 10 12 13 15 15 16 18 20 21 22 22 22 21 20 19 21 23 24 23 23 22 19 17 17 20 24 28 31 32 32 33 35 37 38 40 43 45
5 2 2 6 8 5 2 6 3 5 8 11 12 11 10 10 11 12 12 11 10 9 9 9 11 12 14 16 17 16 17 17 18 19 21 21 21 21 21 22 23 26 28 29 28 27 24 20 17 18 20 22 25 28 30 33 36 38 39 39 40 42 45
5 4 6 8 3 2 3 3 4 5 6 6 7 9 11 10 7 7 8 9 9 9 11 11 12 13 15 17 18 19 19 20 21 22 22 20 19 18 18 21 25 28 30 30 28 26 23 21 18 18 19 20 22 25 27 31 36 38 40 41 42 43 44
6 6 7 6 3 3 5 5 4 4 5 5 3 7 9 7 4 2 4 6 7 9 9 9 9 11 11 12 16 21 23 24 25 23 20 19 18 19 21 24 27 28 29 29 26 24 22 21 18 17 17 18 21 24 25 28 32 36 40 42 43 44 43
6 6 7 7 7 7 6 6 7 5 4 4 2 3 4 7 7 2 3 4 6 8 7 7 8 8 8 8 11 13 16 17 16 15 13 14 16 19 23 25 25 25 26 27 25 23 21 19 17 17 17 18 21 24 25 26 29 33 38 41 42 43 42
7 8 8 7 7 3 2 6 8 6 4 4 3 4 5 6 7 2 3 4 6 7 7 6 6 5 7 8 4 7 11 10 8 8 8 9 12 17 20 21 23 24 24 24 22 20 19 17 16 17 17 17 20 23 25 25 26 30 36 39 40 41 42
7 8 7 6 5 1 3 4 5 6 4 2 4 6 4 5 5 1 2 4 6 8 9 7 4 5 6 5 6 11 14 12 10 9 9 11 14 17 17 19 21 21 20 19 15 13 15 17 16 17 17 17 19 21 22 24 26 28 32 33 34 36 38
8 9 8 6 5 1 2 3 3 3 1 3 4 3 2 4 3 2 3 4 5 7 9 7 5 6 9 13 16 16 15 13 11 9 10 12 14 14 15 17 18 15 14 14 12 12 16 17 16 17 17 17 18 18 20 22 24 24 25 27 29 30 32
8 8 7 7 6 1 2 4 5 3 4 3 1 3 2 1 3 3 4 5 4 6 9 9 9 11 14 18 20 17 15 13 12 11 11 11 10 10 11 12 10 9 10 11 12 13 14 14 16 18 18 17 17 17 17 19 20 20 20 22 25 27 28
7 8 8 8 6 4 8 6 4 3 3 4 8 9 7 4 6 7 6 5 5 6 9 11 13 15 15 17 17 16 14 13 11 10 9 8 8 8 7 6 5 5 8 9 11 12 12 13 14 15 17 17 17 16 17 18 19 18 18 19 22 24 26
5 9 8 3 2 4 7 6 4 4 8 12 15 14 10 8 8 8 7 8 7 8 11 12 14 14 13 14 14 13 13 11 9 8 7 6 6 6 5 5 4 3 3 5 7 9 11 13 13 13 15 18 19 19 20 22 21 20 19 20 21 22 22
4 8 6 7 13 14 10 8 9 12 14 15 16 17 14 12 10 8 9 10 9 8 9 11 11 11 11 11 11 10 9 8 7 6 5 5 4 3 3 3 2 1 1 1 1 3 7 11 13 15 15 17 19 20 19 19 18 18 19 20 20 20 19
7 10 12 12 16 19 16 13 13 15 16 17 17 18 16 14 11 10 10 11 10 8 6 7 9 9 8 8 8 7 6 6 5 4 3 3 2 2 2 1 1 2 1 3 4 4 4 5 8 11 13 14 16 16 16 15 16 16 16 17 17 16 16
7 7 8 10 14 17 18 17 17 18 18 17 16 16 16 15 13 11 10 10 8 6 3 4 7 7 5 5 5 4 4 3 3 2 2 2 1 1 1 1 2 2 2 3 4 5 6 6 5 5 6 7 8 10 10 11 12 13 13 14 14 14 15
9 9 10 15 20 23 22 21 21 19 19 18 17 16 17 17 14 12 11 9 7 4 2 2 4 5 3 3 3 3 2 1 1 2 2 2 3 2 2 2 2 3 3 3 4 5 7 7 6 6 6 6 5 4 4 5 6 7 8 10 11 12 13
10 11 13 16 19 21 21 21 19 16 15 16 17 17 18 19 17 14 12 9 6 1 1 1 2 3 3 4 4 2 1 1 2 2 3 4 5 4 3 3 4 4 5 5 5 6 6 6 7 7 8 7 6 6 5 4 4 5 5 7 8 8 9
9 9 10 11 10 11 14 16 17 18 18 18 19 19 19 21 20 15 12 11 6 2 2 2 1 1 1 2 3 2 2 3 3 4 6 7 6 5 4 5 6 7 7 6 6 6 6 6 7 7 9 9 8 7 6 5 5 5 5 6 6 6 6
11 12 13 13 12 13 18 20 21 23 22 21 22 21 19 22 24 19 15 13 8 4 4 3 2 1 2 3 4 4 5 4 5 6 7 7 7 7 7 8 8 10 10 9 8 7 7 7 8 8 9 10 10 8 7 6 5 5 6 7 7 6 6
17 20 21 18 17 20 25 25 24 24 24 22 23 23 21 22 25 23 19 15 9 3 6 4 3 4 4 5 6 6 6 6 7 7 7 8 9 9 10 10 10 11 11 10 10 9 9 8 9 9 10 10 10 9 9 8 8 8 10 11 10 9 8
20 21 20 19 20 24 27 27 27 28 26 24 24 25 24 24 25 25 20 14 8 3 6 6 5 6 7 7 7 8 8 8 9 8 9 10 11 10 10 10 11 11 11 11 11 11 10 10 9 10 10 10 9 10 11 13 14 14 15 14 13 12 12

ECMWFFLT2_850_spd_027.txt.gz
Wind_Speed
21 23 21 20 15 10 10 12 13 12 12 10 7 7 8 7 8 8 9 10 8 7 8 9 9 13 19 21 19 18 19 22 23 25 28 27 24 22 22 26 30 32 33 35 37 37 38 38 39 41 44 46 47 46 47 47 46 46 46 45 45 45 44
21 24 24 22 19 13 9 12 14 11 11 11 8 7 6 6 8 7 8 12 11 8 7 9 13 14 15 19 20 18 19 22 23 23 26 28 27 25 26 29 31 31 33 35 36 37 38 40 42 43 44 45 47 48 48 47 47 47 46 46 46 46 45
20 21 21 18 20 21 14 10 13 11 10 11 8 7 7 8 8 7 9 11 10 9 8 8 14 16 15 16 18 19 20 21 23 25 28 30 29 26 25 26 26 29 33 35 36 37 38 40 41 41 42 42 43 46 48 47 47 46 46 47 47 47 47
19 15 15 14 16 20 17 12 12 11 9 9 9 8 7 7 7 7 9 10 8 9 9 9 11 14 15 14 14 15 17 19 22 25 26 28 28 26 25 23 24 29 33 35 36 37 36 37 38 38 39 41 41 43 46 46 46 46 46 47 48 48 48
18 13 13 16 16 17 16 13 12 12 10 8 9 9 8 7 7 6 7 7 7 6 8 9 9 12 14 15 14 12 13 17 21 22 22 24 25 23 22 24 28 31 32 33 34 34 33 33 35 36 38 41 41 41 44 46 46 46 47 47 48 48 49
15 14 17 20 21 19 16 13 12 12 12 10 10 10 10 9 7 6 5 5 3 5 3 5 8 10 11 13 13 13 13 17 19 21 21 23 25 24 24 24 25 26 27 29 30 30 30 32 34 36 37 39 40 41 42 44 44 45 46 47 48 48 49
14 17 20 21 22 22 19 16 14 12 12 12 10 8 9 9 9 7 6 5 3 8 5 4 4 5 9 12 12 11 13 16 16 19 21 23 26 27 26 26 24 22 23 25 27 29 30 31 33 35 36 37 40 41 40 41 42 45 45 46 47 49 49
13 16 19 19 21 21 18 16 16 14 14 13 10 8 6 8 10 9 6 6 4 8 7 5 4 2 7 12 12 11 13 14 14 16 18 20 24 23 21 21 20 21 22 22 25 28 30 31 32 34 35 36 37 39 39 40 42 43 43 42 44 47 49
12 13 15 16 18 17 13 14 18 18 18 18 13 9 6 6 10 12 9 7 4 8 7 4 5 7 8 11 14 13 12 13 15 14 11 11 13 15 14 15 15 18 21 23 27 30 32 33 32 33 35 34 35 37 38 39 39 40 40 39 40 44 48
12 11 11 11 15 14 11 15 21 22 22 21 15 9 7 7 9 10 9 6 5 9 8 7 7 8 7 10 14 13 12 12 10 10 12 12 8 8 11 14 14 17 20 22 27 30 31 31 30 31 33 33 33 34 36 37 36 36 38 38 38 40 45
6 2 3 4 10 15 16 19 23 24 24 22 16 11 9 8 7 8 8 6 8 11 10 8 9 9 7 8 12 14 14 13 13 13 10 8 7 7 9 12 13 15 18 20 24 26 26 27 28 29 31 31 32 33 34 35 34 35 37 38 38 39 41
9 4 9 9 6 14 18 22 23 23 24 25 20 14 12 10 8 8 9 7 5 11 12 9 10 10 8 7 10 13 14 12 12 11 7 6 10 11 10 11 12 14 16 18 20 21 22 24 26 27 28 30 31 32 33 33 33 34 35 37 38 39 39
12 6 7 10 7 9 12 18 24 25 24 26 24 19 15 13 9 7 11 13 9 7 12 12 10 9 8 7 6 8 9 7 6 6 4 2 7 13 12 10 10 12 15 17 18 20 21 23 24 25 26 28 29 30 31 32 33 33 34 36 38 38 39
14 10 8 9 7 7 8 12 18 23 24 25 24 22 19 17 13 8 9 15 14 9 10 12 10 7 5 3 1 3 3 3 4 3 1 4 4 6 10 10 9 9 12 15 16 18 19 21 23 25 25 26 28 29 29 31 33 33 33 36 38 38 39
13 12 9 8 7 6 7 7 10 17 24 24 22 21 20 17 16 12 8 9 11 9 6 5 6 4 2 3 3 3 4 4 4 4 4 4 5 2 3 6 7 8 10 11 11 12 14 16 20 23 25 26 26 27 29 30 32 32 33 35 37 39 40
10 12 11 10 8 7 8 9 10 12 15 17 17 16 15 13 13 12 9 7 7 5 3 2 1 1 4 5 6 8 9 8 7 7 7 6 5 5 3 2 3 7 10 10 9 9 10 11 14 18 22 25 26 27 28 29 29 31 33 34 36 39 39
9 14 14 11 9 8 10 11 12 10 9 11 13 11 11 11 10 8 8 7 6 5 4 6 6 6 7 7 7 8 7 7 8 8 8 7 6 5 4 5 6 6 7 8 8 8 8 10 12 14 17 22 26 27 26 27 28 30 33 34 35 37 38
9 11 10 10 12 11 9 8 10 12 12 12 12 11 12 12 10 8 7 6 5 6 7 8 8 7 5 4 4 5 4 5 8 9 10 9 8 7 6 6 8 6 4 4 5 7 8 9 10 12 15 20 23 23 24 27 29 31 33 33 34 37 39
8 8 7 10 13 11 8 8 10 13 15 15 15 15 14 14 13 13 12 9 7 6 5 4 4 3 3 4 6 6 6 8 9 11 12 11 10 9 8 6 5 4 3 4 6 8 8 9 9 10 12 16 19 21 23 27 30 32 33 34 34 36 39
6 6 8 9 6 4 6 8 6 7 11 16 17 16 16 15 14 13 12 12 10 7 6 4 2 3 6 7 8 9 11 14 15 16 17 15 13 11 8 7 6 7 10 12 12 12 11 10 10 10 11 13 16 19 22 25 29 32 33 35 36 36 39
6 6 8 7 3 2 5 8 6 5 8 11 11 12 13 14 13 9 7 7 5 3 4 5 4 5 6 6 9 14 18 18 16 16 16 15 12 8 7 7 8 11 14 14 13 14 14 13 11 11 12 12 15 19 21 24 27 30 33 36 38 38 39
7 7 9 9 8 7 7 8 8 8 9 8 6 7 8 9 10 8 5 4 4 5 7 7 4 3 4 7 9 10 10 9 8 9 11 9 6 7 8 9 11 11 10 11 12 14 15 15 14 13 13 13 15 19 22 24 26 29 33 36 39 40 38
9 10 10 10 10 7 6 9 12 10 7 6 5 6 7 5 4 5 6 7 7 7 7 5 3 3 6 8 4 5 9 11 11 11 11 11 10 9 9 10 10 11 14 17 17 16 15 14 13 13 14 15 16 19 22 24 25 29 33 34 35 37 37
10 10 9 9 7 2 1 3 8 8 6 5 7 9 7 4 5 3 2 5 4 2 4 3 4 6 7 6 5 10 12 12 11 11 11 11 11 11 11 10 12 15 17 17 14 10 9 10 9 9 11 14 16 19 21 23 25 27 30 30 29 30 32
11 11 10 9 6 2 2 3 6 6 5 6 7 6 2 6 6 4 4 4 3 4 4 4 3 5 7 11 14 16 15 13 12 11 11 11 11 11 11 12 15 14 12 10 9 8 9 13 12 10 10 11 14 17 19 22 23 23 23 25 26 26 29
11 11 9 10 7 1 4 2 5 5 4 5 3 4 8 8 6 5 6 6 7 7 7 6 7 9 12 15 18 17 16 15 14 13 12 11 11 11 11 12 12 10 8 7 8 7 8 9 9 9 9 10 11 14 17 18 19 17 17 20 24 25 27
9 10 11 11 7 4 10 5 3 3 1 1 4 9 11 9 8 9 8 8 8 9 9 8 9 12 14 15 15 16 16 15 14 13 12 11 10 10 9 10 9 8 8 8 8 7 7 6 4 3 6 10 11 11 13 13 13 14 15 17 20 23 25
7 10 9 5 1 6 10 6 2 5 7 7 9 11 10 9 11 12 10 10 11 12 11 11 11 12 14 14 13 14 14 13 13 13 11 10 9 8 8 8 9 8 8 7 6 6 7 8 8 5 3 7 9 8 10 13 13 13 14 15 17 19 21
5 7 5 4 6 6 6 5 6 8 9 9 10 11 11 11 12 14 14 14 15 15 14 12 12 12 13 14 13 13 13 13 12 12 12 10 9 9 8 8 8 7 5 6 5 5 6 6 7 8 7 5 6 9 13 15 14 13 12 13 14 15 16
7 10 11 10 7 4 5 7 9 11 12 12 12 12 12 13 14 16 16 17 19 19 17 16 14 13 13 15 14 12 12 12 11 11 11 11 9 8 7 7 6 5 4 4 4 3 4 5 2 7 8 6 5 8 10 9 11 14 13 11 12 13 13
6 8 9 9 7 5 7 10 12 11 11 12 13 13 13 14 16 16 17 19 20 20 19 18 17 15 13 13 13 12 11 11 10 10 10 9 8 7 7 6 5 3 3 3 3 2 2 4 3 1 3 3 2 3 4 4 8 14 14 11 11 11 11
9 10 12 13 13 14 13 13 14 13 11 10 12 13 13 15 16 16 16 17 19 20 19 18 18 17 14 11 11 11 10 9 9 9 9 8 7 6 5 4 3 2 1 1 1 1 2 2 4 4 3 3 2 1 2 2 4 8 10 9 9 9 9
10 12 15 16 17 17 16 17 17 14 11 11 12 13 14 16 16 17 17 17 17 19 20 19 18 17 15 13 11 9 8 7 7 7 8 7 6 4 3 2 2 1 2 2 2 2 3 4 5 5 5 4 4 3 2 2 3 3 5 7 7 7 7
9 10 12 13 12 11 11 14 15 12 9 11 13 14 15 16 16 18 20 20 19 20 20 20 18 16 14 12 10 8 6 5 5 4 4 4 4 3 1 1 1 1 2 3 3 3 4 6 7 7 6 6 6 5 5 5 5 4 5 6 7 7 7
11 12 14 14 12 11 13 17 18 15 12 14 16 16 17 17 17 18 19 20 22 23 22 21 18 16 14 10 8 6 5 4 4 3 1 1 2 2 3 2 2 3 4 4 4 4 6 7 7 7 7 8 7 6 6 6 6 6 7 7 6 6 8
15 17 19 17 15 15 18 21 22 19 16 17 18 19 19 18 17 17 18 18 20 22 23 23 20 17 14 11 8 6 5 4 4 4 3 3 4 4 5 5 6 7 7 6 5 6 7 8 8 8 8 8 8 7 7 7 7 7 7 6 6 5 6
19 20 21 19 19 20 21 22 23 22 19 19 21 22 21 20 19 19 19 19 19 21 22 24 23 19 17 14 11 9 6 4 4 4 5 6 6 6 6 5 6 7 8 8 7 8 9 9 9 9 9 9 8 8 8 7 7 7 9 9 9 8 7

ECMWFFLT2_850_spd_030.txt.gz
Wind_Speed
20 21 19 19 15 10 10 12 13 12 12 11 7 8 10 10 9 8 8 10 10 9 9 12 15 16 20 20 19 19 20 31 34 32 34 32 31 38 43 40 36 37 37 39 43 45 44 44 44 45 46 47 47 47 47 48 47 46 45 45 45 45 44
21 22 22 22 19 13 10 11 13 11 12 12 8 6 7 9 9 7 10 13 12 10 8 10 15 16 16 19 20 18 17 23 29 33 36 34 31 34 41 42 40 40 40 42 46 47 46 46 46 46 46 46 46 46 47 48 48 48 46 45 45 45 45
20 20 20 18 19 19 13 11 13 11 10 10 8 7 6 8 8 6 10 13 11 11 9 10 16 17 14 15 18 20 19 17 23 32 37 36 33 31 37 44 43 42 40 40 43 44 43 44 44 44 43 44 44 45 46 47 48 47 46 46 46 46 45
20 16 15 14 15 19 16 12 13 11 8 9 9 7 6 6 6 6 8 9 8 8 10 11 14 15 15 15 14 17 19 17 19 30 36 36 33 30 34 40 39 37 38 39 40 40 39 39 40 41 41 42 43 43 45 46 47 46 46 47 47 47 47
20 13 13 16 15 15 14 12 12 11 9 8 8 8 7 7 5 5 7 7 7 7 9 12 13 14 15 14 12 13 17 19 20 27 34 36 33 31 33 34 33 35 35 35 35 34 32 33 36 38 40 41 41 41 43 45 47 47 47 48 48 48 47
17 15 16 20 20 18 15 12 11 12 11 9 9 9 9 8 6 5 5 5 5 4 6 10 12 13 14 13 12 11 16 21 23 26 31 37 37 34 34 34 33 34 33 30 28 28 29 32 35 38 39 40 41 41 42 44 45 46 47 48 48 48 48
13 19 20 20 22 22 19 15 12 12 12 11 9 8 8 9 9 7 7 5 2 3 2 5 7 10 14 13 10 10 15 21 24 28 30 38 44 38 34 35 34 33 33 31 29 28 30 35 37 38 39 39 41 42 41 42 44 45 45 46 47 47 47
9 18 20 19 21 20 17 16 15 13 13 13 11 8 7 8 10 9 7 5 2 5 4 4 5 4 11 15 13 13 15 18 20 28 29 34 43 39 34 34 32 32 32 31 30 29 31 37 40 39 40 40 40 41 40 41 42 43 44 44 44 46 47
9 16 16 15 18 17 13 14 17 17 17 18 14 9 8 7 10 12 8 5 4 7 5 4 5 3 8 13 15 16 18 17 14 18 22 30 41 37 31 29 30 33 33 31 31 31 33 38 39 38 40 39 38 40 40 40 39 40 42 42 42 44 45
11 13 12 12 14 13 12 14 21 22 21 20 15 9 8 7 8 11 9 5 6 9 5 4 6 8 8 11 13 14 16 12 5 15 17 25 37 37 31 28 29 32 32 31 31 31 34 37 36 37 39 37 36 38 39 38 37 38 40 40 40 41 43
7 4 3 5 10 14 16 18 22 24 23 21 15 9 8 7 7 9 7 4 9 11 8 8 9 9 8 11 12 10 15 16 18 24 21 20 28 31 27 26 30 32 30 29 29 29 33 37 36 35 37 37 36 36 37 36 35 36 38 39 39 40 41
10 4 2 5 4 10 19 23 23 24 25 23 17 13 11 8 7 8 7 7 10 10 10 10 8 7 9 12 13 13 19 19 17 21 22 21 21 21 20 21 25 28 28 27 27 29 34 36 35 33 33 35 36 35 35 36 35 35 37 39 40 40 40
15 14 9 6 7 7 9 19 24 23 25 26 21 16 14 11 6 7 8 6 7 9 12 14 10 7 8 10 13 18 19 15 14 19 21 21 18 15 14 17 18 20 22 22 23 29 32 32 32 31 31 32 34 34 34 35 35 35 36 39 41 41 42
16 16 14 9 7 11 11 13 23 24 23 25 23 18 17 15 9 8 9 5 6 10 11 13 12 10 14 17 19 20 18 14 13 16 17 17 19 19 16 15 16 17 17 16 18 26 29 28 29 30 30 31 32 33 32 33 35 34 35 38 41 42 43
13 16 17 13 10 10 12 14 17 23 22 24 24 19 18 15 10 12 13 8 6 9 9 9 12 15 18 17 16 17 15 14 13 11 9 9 14 22 22 17 17 18 17 17 18 23 26 27 28 29 29 29 29 30 31 31 33 34 34 36 40 42 43
9 12 17 16 8 7 12 16 15 16 17 19 20 17 16 15 13 14 13 11 8 8 10 11 13 14 13 11 12 12 9 9 8 6 6 10 7 13 16 16 17 18 19 20 21 23 25 26 27 27 28 28 28 29 30 30 30 32 34 35 38 42 42
9 11 15 15 6 4 11 12 10 7 10 15 19 20 18 16 15 12 9 10 8 9 10 9 9 10 9 8 8 8 8 8 7 5 5 6 3 4 7 10 15 17 18 21 22 22 22 22 23 24 25 26 27 27 28 29 30 31 33 34 35 39 42
9 12 13 13 10 8 8 7 7 9 11 10 11 16 20 19 16 12 9 11 8 10 10 7 5 5 6 9 10 10 10 9 7 4 3 2 2 2 3 4 7 8 12 18 17 14 15 16 18 21 22 23 25 26 26 28 30 31 33 34 34 36 41
7 9 10 12 11 9 5 4 10 13 8 6 10 12 21 23 17 11 11 13 10 7 6 5 4 4 6 10 10 9 8 8 6 3 1 1 1 4 5 6 6 9 8 10 8 5 8 9 10 14 18 20 22 23 25 27 30 32 33 35 35 35 38
5 7 11 10 7 8 9 9 14 14 6 5 11 8 8 12 9 8 8 10 10 7 4 5 6 6 7 9 7 5 4 2 1 4 3 4 5 2 5 10 10 7 5 4 1 1 5 7 7 8 12 16 19 21 23 25 28 31 33 35 37 37 37
5 5 9 8 5 8 11 11 13 11 6 5 8 3 1 1 4 9 6 6 7 8 8 7 8 7 5 5 5 1 1 3 5 5 5 13 16 15 14 14 10 5 2 1 3 4 3 6 8 7 9 12 15 19 22 24 26 30 33 36 38 38 37
5 5 6 9 9 9 8 9 12 8 4 4 6 1 3 3 3 3 6 6 4 3 8 9 10 8 4 2 3 5 6 9 13 13 14 16 16 14 14 13 10 4 2 3 5 5 5 5 6 8 10 12 13 15 20 24 26 28 32 36 37 38 38
7 6 5 7 9 6 3 11 14 8 4 3 5 4 4 8 14 11 6 5 8 4 2 5 6 4 5 3 5 11 13 12 13 14 15 14 12 11 11 10 6 3 5 5 5 5 5 5 5 5 8 12 14 15 16 20 24 27 31 34 35 36 37
7 7 6 4 5 2 12 11 10 12 12 9 8 6 2 10 17 20 16 4 9 6 6 6 3 3 3 3 8 13 14 12 13 13 12 12 12 10 10 9 7 7 8 6 5 4 5 7 6 4 5 9 13 16 16 17 22 25 28 30 31 32 34
7 7 7 5 4 6 17 15 8 3 9 14 9 4 2 11 14 19 19 12 12 13 10 6 4 4 8 11 11 13 14 12 13 12 10 11 10 9 10 11 9 7 6 6 4 5 6 7 4 5 6 7 10 15 16 17 20 21 22 25 28 29 31
7 5 7 6 4 7 17 16 21 22 5 8 3 3 6 9 14 19 19 17 18 16 11 8 9 11 14 15 13 14 15 13 12 12 11 11 10 9 10 9 8 7 6 6 6 6 7 6 3 3 5 6 9 12 14 15 17 18 16 18 23 27 28
7 7 7 5 2 8 18 16 15 17 8 2 2 8 9 10 14 16 18 19 19 16 12 11 12 12 13 15 15 16 14 13 13 12 11 12 11 10 10 8 7 8 7 6 7 6 6 8 8 6 3 4 7 8 8 10 13 15 14 14 18 24 26
5 7 3 1 2 6 14 15 9 9 9 6 6 8 9 11 13 14 15 16 17 16 13 11 10 11 13 14 15 16 15 13 14 13 12 12 12 11 10 9 9 9 7 5 7 6 6 10 10 5 4 2 3 4 7 9 11 14 15 12 14 20 23
4 5 4 4 6 6 12 17 12 9 9 8 9 10 9 11 13 14 14 14 15 16 16 13 11 10 12 13 14 15 15 15 14 13 13 12 11 10 10 9 8 7 6 5 6 6 6 10 9 1 6 5 5 8 10 11 13 14 14 12 11 17 21
7 7 6 7 8 6 8 11 12 10 8 9 10 10 9 10 12 12 13 14 14 14 14 14 13 12 12 12 12 14 14 14 14 14 13 12 11 10 10 10 8 7 6 5 6 6 5 7 8 1 6 6 6 9 9 10 13 15 14 12 10 14 17
6 5 3 2 8 9 6 7 10 11 10 9 10 9 8 10 11 11 12 13 12 12 12 13 15 15 13 12 12 13 13 13 13 13 12 11 11 10 9 9 8 7 6 5 6 6 4 2 4 3 2 2 2 4 5 7 11 15 15 12 10 12 14
7 8 8 9 15 18 15 11 11 13 14 11 9 9 9 10 10 11 11 11 11 12 12 12 14 15 15 14 13 12 12 12 11 12 11 10 10 10 8 7 6 5 5 5 3 5 5 2 2 3 1 2 2 1 1 2 5 10 12 11 9 10 11
8 10 12 12 13 15 15 12 12 13 14 11 9 9 10 12 13 14 14 13 12 12 12 12 13 14 16 16 15 13 12 11 10 10 10 9 9 9 6 5 5 4 3 3 3 3 3 3 4 4 3 3 4 3 2 3 4 5 8 10 9 9 9
7 8 9 10 9 9 11 12 12 10 11 12 13 14 13 13 15 16 17 17 16 14 13 13 13 13 14 17 18 16 14 11 10 10 9 8 8 7 5 4 4 3 2 1 2 2 2 4 5 5 6 5 4 3 4 5 5 5 6 9 10 10 9
9 11 14 14 11 10 13 16 15 13 13 14 16 18 17 15 15 16 18 20 20 20 19 17 15 14 15 17 19 20 17 13 11 9 7 6 6 6 5 4 3 2 2 1 1 0 2 3 3 4 5 5 4 4 5 6 6 6 8 9 11 12 12
14 19 22 21 18 16 17 19 18 16 14 14 16 18 20 20 18 17 18 20 21 22 23 22 19 17 16 17 18 20 20 16 12 9 7 5 5 5 4 1 2 3 3 3 3 3 3 4 6 5 4 5 5 4 4 6 7 9 10 9 9 11 12
19 22 24 24 23 22 20 20 20 18 15 14 15 18 20 22 22 21 21 22 22 22 22 24 24 21 19 19 18 18 19 18 14 11 8 7 8 7 3 0 2 3 4 4 5 6 6 7 7 6 5 5 5 3 3 5 7 9 12 12 10 9 9

ECMWFFLT2_850_spd_033.txt.gz
Wind_Speed
15 17 15 13 11 6 6 9 9 6 6 4 3 2 3 2 3 4 5 6 4 4 5 7 11 14 13 11 12 13 28 43 41 37 41 44 44 45 46 46 46 47 49 49 50 50 48 48 49 49 47 47 47 47 47 48 48 49 51 51 52 50 48
19 18 17 15 14 8 7 9 8 5 5 6 2 2 3 4 4 4 7 9 7 6 6 7 12 16 16 14 12 10 20 35 37 37 42 44 44 45 46 46 46 46 47 49 51 52 52 52 52 51 47 45 46 46 46 47 47 49 51 51 52 52 50
17 16 16 13 15 14 8 8 9 6 6 6 4 3 3 6 5 4 8 10 8 8 8 9 13 16 16 15 16 14 14 21 28 35 41 42 42 44 44 45 45 45 46 49 50 52 53 52 51 50 47 45 45 46 46 46 47 48 50 51 51 52 51
15 11 11 11 12 14 10 8 10 8 5 4 5 4 2 4 4 4 7 8 7 7 10 14 15 15 14 13 14 16 14 19 27 32 37 41 41 42 43 44 46 46 46 48 50 51 50 49 48 47 46 46 47 47 46 45 46 47 49 51 51 51 51
15 10 10 12 12 12 10 8 9 9 6 4 4 4 3 3 3 3 5 5 5 6 8 15 17 15 15 12 11 13 14 23 33 36 39 43 44 44 45 46 47 47 47 47 48 48 47 47 46 46 46 47 47 48 47 46 46 47 49 50 51 52 51
12 12 12 13 15 13 11 7 7 10 8 5 6 6 5 5 3 3 4 4 6 5 4 12 17 14 14 13 10 9 13 25 36 40 41 43 45 46 47 48 48 47 47 47 47 47 46 45 46 47 47 48 48 48 47 47 47 48 49 51 52 52 52
8 13 16 16 17 16 13 9 7 9 10 7 6 5 6 6 5 5 3 3 6 7 6 10 16 12 11 14 11 8 12 24 36 40 41 42 45 47 47 47 48 47 48 48 47 46 46 45 46 46 47 48 48 48 47 46 48 49 49 50 51 52 52
8 8 12 17 17 15 12 11 9 7 10 10 6 4 5 5 5 6 3 3 5 8 7 4 12 12 12 12 13 11 11 22 37 42 40 40 43 48 49 46 46 47 46 47 47 46 46 47 48 47 47 46 45 45 45 46 48 49 49 50 50 51 52
6 6 7 13 15 14 9 10 12 10 10 14 9 4 4 5 6 7 3 3 5 7 7 7 9 11 13 10 13 15 14 22 38 43 43 42 42 47 49 45 44 44 42 43 44 44 44 45 47 48 47 45 43 42 43 44 46 47 48 49 50 50 51
4 4 5 8 11 11 7 9 15 14 12 15 12 5 3 4 7 8 5 3 5 6 6 7 7 8 10 8 10 13 14 23 34 39 44 47 45 46 48 46 44 43 41 41 41 41 41 42 43 45 45 44 42 41 42 42 43 44 46 48 49 50 51
4 5 5 7 13 13 9 11 15 17 16 13 11 7 4 5 6 6 6 5 4 5 3 3 3 4 6 6 6 7 12 20 28 35 40 44 45 47 48 47 46 45 44 45 44 42 43 43 43 43 42 43 43 42 42 42 41 41 43 45 47 49 50
8 10 12 5 11 16 16 15 13 17 20 16 10 9 7 6 7 5 7 8 6 5 4 4 5 5 8 9 9 8 13 19 23 35 43 40 39 44 47 48 48 48 47 47 48 47 47 47 46 44 42 43 43 43 43 42 42 41 41 43 45 46 48
11 12 14 10 4 6 12 17 16 15 21 21 14 10 9 8 8 5 8 10 8 6 6 5 4 7 9 10 14 16 18 21 20 30 39 35 32 37 43 46 48 48 48 47 47 48 48 46 46 45 44 43 44 44 44 43 42 42 41 41 43 44 46
11 10 11 12 7 2 2 11 15 11 16 23 18 10 9 9 7 8 10 10 5 4 3 4 6 12 14 14 20 22 22 24 25 27 30 29 29 33 38 43 46 47 48 48 47 47 46 44 44 44 43 44 44 44 43 42 42 41 41 42 43 44 46
5 7 11 14 8 1 2 3 7 4 7 19 19 13 10 8 7 7 9 10 3 2 9 11 11 16 18 15 16 20 21 22 24 24 25 27 30 33 34 37 41 43 44 45 45 45 42 40 41 41 40 42 43 43 42 41 41 41 41 42 43 45 46
3 3 8 13 9 5 6 4 2 3 3 9 16 13 9 6 8 8 9 10 4 3 10 11 9 12 15 13 13 19 23 26 27 26 24 24 26 28 30 30 33 36 38 39 39 37 35 36 37 38 38 38 40 41 41 40 40 41 42 42 43 45 46
4 4 7 10 8 6 7 3 0 2 4 4 10 14 12 6 7 7 6 6 7 6 10 10 10 12 11 11 15 21 24 26 29 28 23 20 20 22 23 23 25 28 28 27 27 26 28 32 35 36 37 36 36 37 38 38 38 39 41 42 43 44 45
5 8 8 5 4 4 3 1 1 2 6 6 3 5 10 7 4 6 9 6 4 9 11 9 11 12 12 16 22 26 26 26 29 29 25 19 18 18 18 18 19 21 20 20 20 21 25 29 31 32 33 33 32 32 33 35 37 38 40 41 43 43 44
5 7 5 2 1 5 2 3 4 7 8 5 9 14 10 8 7 3 14 13 6 9 12 12 14 17 22 28 32 33 32 31 32 31 28 25 24 23 22 19 18 17 16 16 16 16 18 20 22 25 27 28 28 28 29 32 34 36 38 40 42 42 42
4 3 1 2 3 6 1 6 10 14 11 6 6 15 17 18 18 11 6 13 12 11 14 17 20 25 31 34 35 36 35 33 33 31 29 29 28 26 25 23 20 18 16 14 12 11 12 12 13 17 21 23 25 26 28 30 32 34 36 38 40 42 42
3 4 3 3 3 5 2 7 11 12 11 8 3 9 11 18 20 18 10 4 12 14 15 19 25 29 29 23 23 30 31 29 28 28 28 27 24 21 21 21 19 16 15 13 11 11 13 12 12 13 14 17 22 25 27 29 30 31 34 37 38 40 42
3 4 3 2 2 2 4 11 17 16 17 12 4 12 10 17 20 21 16 8 9 11 13 17 22 24 20 9 11 22 26 25 26 25 24 24 22 18 16 15 14 12 10 10 8 7 9 11 12 13 13 13 16 20 23 27 29 30 32 36 37 38 40
4 3 2 3 2 1 8 17 19 22 26 17 3 11 8 12 18 23 20 15 14 11 13 17 17 15 10 4 7 18 22 23 25 24 22 21 19 17 15 14 14 12 9 10 9 5 4 6 10 13 15 16 15 16 17 22 27 30 31 33 35 37 38
4 3 2 3 0 3 13 17 18 27 30 15 3 8 5 10 17 23 22 19 19 18 20 21 14 9 8 6 10 18 21 22 24 23 23 20 16 16 17 14 12 10 7 7 6 2 1 2 5 9 15 18 18 16 15 16 21 27 31 31 30 31 34
4 3 3 2 1 4 13 16 22 31 24 7 7 6 4 11 14 21 24 22 23 24 23 20 14 13 16 16 18 22 24 24 24 22 21 19 15 16 17 14 11 9 7 6 5 4 4 3 6 9 12 16 20 20 18 16 16 18 23 29 29 28 28
3 2 3 3 0 7 17 20 25 28 14 3 4 3 6 11 14 21 24 24 25 26 23 22 19 20 23 23 23 24 25 25 25 22 20 19 15 14 14 14 12 10 10 11 9 6 6 7 7 9 11 12 16 18 17 18 18 15 14 19 25 28 28
2 1 3 3 1 9 21 20 17 17 9 2 1 4 10 17 20 21 23 25 27 27 24 23 22 22 23 24 23 23 23 24 23 20 19 18 16 12 11 12 11 8 9 11 8 5 8 10 8 7 10 10 10 12 14 17 20 19 16 14 16 22 27
3 2 3 3 2 8 15 14 9 10 11 7 7 8 12 18 21 22 23 25 27 27 25 24 24 24 24 24 23 23 23 22 21 20 17 15 13 12 12 12 7 4 6 8 7 7 9 10 7 4 6 7 6 9 13 15 17 19 19 18 15 16 21
1 1 3 3 7 10 11 12 9 12 18 16 14 15 15 17 20 22 22 24 26 26 25 25 26 27 27 25 24 24 22 21 20 19 17 14 11 11 12 12 7 2 4 6 7 7 7 6 3 2 2 4 6 9 12 13 14 15 17 18 17 14 16
2 3 7 5 6 13 15 13 11 13 15 14 15 17 16 16 17 19 20 22 23 23 24 25 25 26 26 25 25 24 23 22 20 18 17 14 10 9 12 12 9 4 2 5 7 6 5 3 1 1 2 3 5 8 10 10 10 12 14 16 15 12 14
4 3 3 5 11 15 15 13 13 12 11 10 13 14 14 13 15 16 17 19 20 20 22 23 23 23 23 23 23 22 22 21 20 18 19 17 11 8 10 11 9 6 4 5 6 6 7 5 3 3 3 4 4 5 7 8 9 11 12 13 12 12 14
4 4 7 13 17 16 13 13 13 12 10 10 10 11 12 11 12 12 14 16 18 18 18 19 20 21 22 21 21 20 19 19 18 17 17 17 12 8 9 9 9 8 6 5 5 7 8 5 3 3 3 3 3 4 5 7 9 11 12 11 12 13 15
5 4 6 12 13 11 13 16 17 18 19 14 10 10 10 11 12 12 11 13 14 14 15 16 17 18 19 19 19 19 17 18 18 16 15 15 12 9 8 8 8 9 7 5 5 6 4 3 3 3 4 4 4 4 3 3 6 9 12 13 13 14 15
5 5 9 14 11 7 14 20 21 22 24 20 14 12 11 11 12 12 11 11 12 13 14 15 15 15 16 16 18 19 18 17 17 16 15 13 10 9 10 9 8 9 7 5 5 3 2 4 6 4 4 4 4 3 2 4 4 6 9 12 13 14 14
7 11 19 23 16 10 15 24 26 24 24 23 20 17 14 11 11 12 11 12 14 16 16 15 14 14 15 16 17 18 19 17 16 14 14 13 10 10 11 9 7 6 4 4 3 2 2 6 7 7 6 4 2 2 3 4 4 5 7 9 11 13 14
13 19 26 29 25 21 24 28 28 26 25 25 24 20 15 13 13 13 13 13 15 15 15 15 14 14 15 17 18 18 18 18 16 14 13 12 11 10 9 8 6 4 2 1 1 1 2 2 4 7 6 6 5 3 2 3 3 5 7 8 9 12 12
20 25 30 30 30 33 35 31 26 25 24 24 24 23 20 17 15 15 15 14 12 11 12 14 17 18 18 18 18 17 17 18 18 16 14 13 11 10 9 8 7 4 5 5 4 4 4 2 2 2 3 6 6 3 3 4 2 3 6 8 10 12 13

ECMWFFLT2_850_spd_036.txt.gz
Wind_Speed
13 15 13 13 12 7 6 9 8 7 6 6 4 4 1 5 4 5 3 3 3 2 5 6 5 5 8 11 13 19 28 34 36 37 41 44 45 48 51 52 53 54 55 56 55 55 55 55 54 54 54 54 54 54 54 53 52 51 51 50 50 49 48
17 19 15 13 14 9 6 9 9 6 5 4 4 2 2 3 4 4 5 6 4 3 4 7 7 7 8 9 11 15 22 28 32 36 41 45 46 49 52 53 55 54 55 56 57 56 56 56 56 56 56 55 55 54 53 53 52 52 51 50 50 50 49
15 18 15 10 14 15 10 8 8 7 5 6 5 4 4 4 4 3 5 7 5 5 5 6 8 11 12 10 11 15 18 22 28 36 42 46 47 48 50 51 52 52 54 56 57 57 57 57 57 57 56 54 53 53 53 52 52 51 51 50 50 50 50
9 11 10 8 12 14 9 7 9 8 6 5 5 4 4 4 4 4 3 4 5 5 6 9 12 14 14 12 11 15 18 22 30 36 41 44 46 48 49 49 50 52 54 56 57 58 58 58 57 55 53 53 52 53 52 51 51 50 50 50 49 50 50
5 7 9 12 13 10 8 8 9 9 4 3 4 3 3 5 3 4 4 4 6 7 8 12 15 14 15 14 12 15 19 28 37 40 42 44 45 48 50 50 51 52 54 55 56 57 57 56 54 52 52 52 52 52 52 52 51 50 50 50 49 49 50
6 7 8 14 15 10 8 7 8 11 6 5 6 5 4 4 4 4 5 4 7 8 7 11 15 14 14 16 13 13 20 33 40 42 45 46 46 48 49 49 51 52 52 54 54 53 52 51 51 51 52 52 52 52 52 52 51 51 51 49 48 49 49
9 13 11 11 15 12 9 7 7 10 8 6 8 7 6 5 4 3 3 3 6 7 7 10 14 14 15 19 15 12 22 36 41 43 46 47 48 50 50 50 51 52 53 54 53 52 51 50 51 52 52 52 52 53 52 51 51 51 51 49 47 47 48
9 14 12 8 12 14 10 7 7 9 10 9 7 6 6 5 5 4 2 4 7 7 5 8 12 14 15 19 19 17 23 35 41 42 44 46 49 51 50 50 50 50 51 51 51 52 50 49 50 51 52 52 52 51 51 51 51 51 50 49 47 46 48
4 7 8 6 8 12 10 8 9 12 14 12 6 4 5 4 7 7 4 4 8 7 5 4 8 13 14 15 19 24 28 33 39 42 45 47 48 48 46 45 46 46 47 49 51 52 52 51 51 51 52 51 50 49 50 50 50 50 49 49 47 47 47
3 5 4 3 3 6 8 11 14 14 16 15 8 4 5 5 7 7 6 6 9 8 8 9 6 11 14 10 13 23 32 38 40 41 44 46 46 45 44 44 45 45 47 50 51 52 52 52 51 51 51 51 49 48 48 48 48 48 48 48 47 47 47
7 7 8 9 8 7 9 15 17 14 14 15 10 6 4 6 5 5 7 9 8 9 8 9 7 4 10 9 9 15 27 37 40 40 43 45 44 45 46 46 46 46 47 49 50 52 52 52 51 51 51 50 49 48 48 48 48 47 48 47 47 47 47
13 13 16 17 13 11 13 16 18 15 13 14 12 9 7 6 6 5 9 8 7 9 9 8 7 0 7 9 9 13 24 35 39 42 44 44 44 44 45 46 47 47 47 48 49 50 51 50 50 49 49 49 49 48 48 48 48 48 47 47 47 46 47
20 17 16 16 12 10 11 13 19 17 15 15 14 11 8 8 8 8 9 8 9 9 8 7 6 2 2 6 12 20 29 35 38 42 43 42 42 44 46 48 49 49 48 48 48 49 49 49 48 47 47 47 47 47 47 47 48 48 47 47 47 47 47
20 15 11 10 8 8 9 8 19 19 16 16 13 10 9 8 8 9 7 7 7 6 6 5 2 2 2 4 11 18 27 33 36 38 40 41 42 43 45 48 50 50 49 48 49 49 48 48 47 46 46 47 47 47 46 46 47 47 46 47 47 47 47
11 9 9 9 9 7 7 2 10 14 15 17 13 9 8 6 4 4 6 5 1 4 4 0 6 9 8 7 9 12 21 31 35 35 36 39 41 41 42 45 46 45 46 46 47 48 48 48 47 47 47 47 47 46 45 45 45 45 45 46 46 46 46
7 9 12 14 13 5 10 13 9 1 8 11 7 3 2 0 2 6 8 6 1 2 1 6 10 11 11 8 7 9 16 26 33 36 36 38 40 41 42 42 42 42 43 44 45 46 47 46 46 46 46 47 47 46 45 45 44 44 44 45 45 45 43
7 10 14 15 12 5 9 11 14 9 7 12 10 10 13 10 1 5 5 5 4 3 5 12 12 12 13 10 10 12 14 18 23 28 31 33 35 38 40 41 41 42 42 42 44 44 43 44 44 44 44 44 45 45 45 44 43 43 43 43 44 43 42
7 12 15 12 5 5 4 2 10 13 13 19 18 13 15 15 9 4 2 2 3 3 8 15 14 13 15 18 23 25 23 24 25 23 22 23 24 26 30 34 35 37 37 38 40 40 41 42 42 41 40 40 39 39 40 41 42 43 43 43 43 43 41
6 9 8 3 2 3 3 1 10 15 10 13 17 18 18 19 16 14 11 8 8 6 10 17 19 20 26 34 38 35 30 30 32 32 29 26 25 23 23 24 24 26 27 29 31 33 35 36 37 39 39 38 37 36 37 39 41 42 42 42 43 43 42
4 5 3 1 4 2 3 5 12 17 13 12 14 17 18 20 18 16 12 9 8 5 9 18 23 29 37 40 39 36 32 32 34 35 35 33 32 29 25 23 20 18 18 19 21 23 25 27 29 32 34 35 36 36 36 37 39 41 42 42 43 43 43
2 4 3 2 4 5 6 8 12 13 10 10 8 8 12 16 17 15 12 10 10 8 7 9 17 32 36 27 25 31 32 31 32 34 36 36 36 35 32 30 28 24 23 21 20 19 19 20 21 23 26 30 33 34 34 36 37 39 41 42 43 44 43
4 5 3 3 3 2 5 11 16 15 12 12 9 1 9 14 18 18 14 11 12 11 12 12 4 21 27 12 11 23 28 29 32 33 35 35 34 33 32 30 28 27 26 25 23 22 21 21 19 18 19 22 24 27 30 34 37 38 40 41 41 42 43
4 3 2 3 2 1 8 16 19 23 23 15 8 2 8 11 18 21 17 13 13 12 13 13 8 14 16 6 7 18 24 28 32 33 33 32 30 28 27 26 24 22 21 21 21 20 20 19 17 16 17 18 18 19 22 26 31 35 38 40 39 39 40
5 4 2 2 1 2 12 17 19 30 31 14 2 6 6 10 18 22 18 15 16 16 16 16 14 12 10 6 9 18 23 26 30 32 32 31 28 25 23 21 20 18 16 15 15 15 13 12 12 13 15 16 17 18 18 20 23 26 30 33 35 36 36
4 4 1 1 1 3 12 19 25 32 24 6 6 6 3 11 17 19 20 20 20 21 20 18 14 13 15 16 18 22 24 25 27 29 29 29 28 26 22 19 17 15 14 13 11 10 8 5 5 7 10 12 14 15 17 18 20 21 23 26 30 33 34
3 3 1 1 1 5 16 23 26 24 10 5 6 4 5 11 15 15 21 24 23 24 24 23 21 20 23 24 25 26 25 23 24 25 25 25 25 24 21 18 16 14 13 12 10 8 7 5 2 2 6 8 10 12 14 16 18 19 20 21 24 28 32
3 2 3 4 1 8 20 21 17 16 8 4 1 3 9 15 17 17 22 26 27 26 25 25 27 27 26 26 26 26 26 25 23 22 22 24 23 22 21 19 16 14 12 10 8 8 8 8 6 4 4 6 8 9 12 14 16 18 19 19 19 21 25
3 2 4 3 3 2 12 12 7 7 7 7 7 7 11 16 19 22 25 26 28 29 27 26 27 28 28 28 26 26 27 26 24 22 21 21 22 21 20 19 16 14 12 10 9 9 10 9 8 6 5 5 6 8 9 12 14 16 18 20 20 19 19
2 1 2 5 2 1 7 12 11 11 12 14 14 14 15 16 19 23 27 27 28 29 28 27 28 28 28 27 26 26 26 26 26 24 21 20 20 19 19 18 15 13 11 10 10 10 11 10 8 6 6 5 5 6 8 10 12 13 14 16 18 18 18
3 0 6 14 15 9 9 15 18 18 17 17 17 17 17 18 19 20 22 23 24 26 27 27 27 27 27 27 27 26 25 26 27 25 21 20 19 18 18 18 16 13 11 9 10 12 12 11 8 6 6 6 5 6 8 9 10 11 12 13 15 15 16
6 2 7 14 17 12 13 18 21 22 22 22 22 19 16 17 18 17 17 18 20 23 24 24 24 24 25 27 27 26 25 26 27 25 22 20 18 18 17 16 16 15 13 12 12 12 12 10 7 7 6 6 6 7 8 10 10 10 10 11 12 13 14
6 3 7 19 23 13 9 14 19 20 22 24 22 19 18 17 16 15 15 16 18 20 21 20 19 20 23 25 27 26 25 24 24 23 21 19 16 15 15 13 14 15 15 14 13 11 10 9 7 5 3 3 5 6 8 10 11 11 10 10 10 11 12
5 3 9 22 25 16 13 21 22 20 22 25 22 19 19 18 15 14 15 17 18 18 16 16 16 17 20 23 23 23 23 22 20 18 17 16 13 12 12 12 12 13 13 13 10 8 8 8 8 5 1 2 4 6 7 9 10 11 12 11 8 7 9
3 4 9 14 12 8 18 31 31 24 24 25 23 21 20 19 17 16 16 18 18 16 14 14 15 17 19 21 21 20 20 20 18 15 13 13 12 11 11 10 9 9 9 9 7 5 5 7 8 6 5 6 6 6 7 8 7 8 11 12 10 8 8
9 11 12 12 10 12 21 31 35 33 29 24 23 23 20 18 18 18 17 19 18 14 13 14 16 18 19 19 18 18 18 17 16 14 12 12 12 11 10 10 9 8 6 5 5 3 3 5 7 6 6 6 7 8 8 8 7 7 7 10 12 11 11
15 19 21 19 18 22 29 33 37 39 34 26 25 26 21 15 14 15 15 15 14 13 14 15 16 17 18 17 16 17 16 16 16 15 14 13 12 10 8 7 9 8 4 2 3 3 3 5 6 6 6 6 7 7 8 8 8 7 6 7 11 13 13
21 26 29 28 26 30 34 35 36 38 35 30 27 25 20 15 12 13 14 13 11 13 16 16 15 16 15 16 17 17 16 15 15 16 16 14 11 9 6 5 6 7 5 3 3 4 5 5 6 6 7 7 7 6 7 8 8 7 5 6 9 12 13

ECMWFFLT2_850_spd_042.txt.gz
Wind_Speed
8 5 6 10 11 6 4 7 9 6 5 5 3 4 1 3 5 6 3 4 4 2 7 5 3 7 10 15 18 20 25 27 23 25 32 37 40 42 43 45 47 48 48 48 50 51 51 52 53 54 55 55 55 54 52 51 50 49 48 47 45 43 42
9 13 12 8 14 9 4 7 9 5 6 5 4 4 2 3 7 5 2 6 5 4 6 4 5 7 8 11 12 14 19 20 21 27 34 38 42 45 46 48 49 48 48 49 50 52 53 54 55 55 55 54 54 53 52 51 51 50 49 48 46 44 43
9 14 10 6 10 13 8 6 8 7 5 7 6 5 6 6 6 5 3 4 5 6 6 5 8 10 10 11 11 12 14 14 20 27 32 37 42 44 45 47 47 46 47 49 50 52 53 53 54 54 54 53 53 53 52 51 50 49 48 48 47 46 44
8 8 3 4 8 12 9 5 7 7 5 6 7 4 3 4 4 4 3 2 4 6 6 8 11 11 11 11 10 11 12 16 23 27 30 35 38 41 44 46 46 46 48 50 51 52 52 52 52 52 52 52 52 52 52 52 50 48 48 48 47 46 45
6 4 3 4 4 5 6 5 7 7 3 2 4 3 2 4 4 3 3 4 5 5 5 9 12 12 12 12 12 11 13 19 26 29 31 35 38 42 46 47 47 48 49 51 52 51 50 49 48 49 50 52 52 52 51 52 51 49 49 48 47 47 46
3 6 6 4 2 2 3 4 5 8 5 3 5 5 3 4 4 4 3 4 6 5 4 8 11 11 11 13 13 12 15 23 29 31 33 36 39 44 47 49 50 50 51 51 51 49 47 46 47 49 51 52 52 52 52 51 51 50 49 48 48 47 45
7 16 18 13 9 6 5 5 4 5 4 5 6 6 4 3 3 3 2 4 7 6 6 8 9 10 11 14 15 12 16 25 30 33 36 37 39 44 47 49 50 51 52 51 49 48 47 48 50 50 51 51 52 52 52 51 51 51 49 48 47 46 45
7 14 14 8 5 3 2 3 3 3 3 4 6 4 4 4 4 3 4 8 8 5 5 7 8 8 8 12 17 16 18 24 28 32 36 36 39 43 45 46 47 49 49 46 45 46 48 49 50 50 50 51 52 52 52 52 52 51 50 48 47 46 46
4 7 5 1 3 4 2 4 5 4 7 6 3 2 3 3 7 8 6 8 8 3 1 2 4 5 4 6 12 17 19 22 25 30 34 37 39 42 43 44 45 44 42 41 43 46 48 50 50 50 51 51 51 52 52 52 52 51 50 48 48 47 46
4 5 3 2 2 5 4 6 8 7 7 7 5 2 3 5 7 8 6 9 8 1 2 1 0 3 4 5 7 12 17 21 22 25 32 37 39 41 43 43 43 42 42 43 45 47 48 50 51 50 51 51 51 51 52 52 51 51 50 49 48 48 47
5 4 3 3 3 5 7 9 13 12 8 7 4 2 5 6 4 5 7 10 8 6 4 5 3 5 6 6 6 8 15 22 24 25 31 36 40 43 44 43 42 42 43 45 47 48 49 51 51 51 51 51 51 51 51 51 51 50 49 49 48 48 48
9 8 9 9 6 7 10 11 13 14 12 9 5 6 6 3 5 7 8 4 7 13 9 4 4 7 7 6 7 11 17 24 28 30 31 35 40 43 42 41 41 42 44 46 47 48 50 50 50 50 50 50 50 50 50 50 49 49 48 48 48 48 48
10 10 11 12 9 9 10 10 12 15 14 11 9 9 8 5 6 9 6 5 9 11 6 4 2 5 8 9 12 16 20 24 28 31 32 34 38 40 39 39 41 44 46 47 48 49 50 50 50 49 48 48 48 48 49 48 48 48 48 47 47 47 48
10 11 12 12 9 7 8 9 10 11 13 13 11 11 10 10 10 8 6 9 10 4 5 6 7 5 5 8 11 14 18 21 26 30 32 34 36 38 39 40 43 46 47 48 49 49 49 50 49 49 48 48 48 48 48 48 47 47 47 46 46 47 47
8 9 8 7 7 7 7 6 6 9 11 8 6 7 6 6 8 9 8 10 8 4 6 6 8 10 10 10 13 16 18 19 23 28 29 31 35 37 39 42 44 46 46 47 47 47 49 50 50 50 49 49 49 48 47 47 47 46 46 45 45 46 46
5 5 4 4 6 6 6 2 8 12 11 8 3 1 4 3 4 5 6 6 5 6 8 6 7 11 12 12 14 17 22 24 18 23 26 29 34 38 40 43 44 45 44 45 46 47 49 50 50 50 49 48 47 47 47 47 46 45 44 44 44 44 44
4 4 4 7 5 4 4 1 6 8 8 8 6 6 10 8 3 2 2 4 5 7 7 7 9 12 12 11 14 18 22 27 20 16 23 27 33 39 42 43 44 44 44 45 48 49 49 50 51 50 50 49 48 48 47 45 44 43 43 43 43 43 43
4 6 6 5 4 4 4 3 5 7 6 8 8 8 12 13 8 5 4 5 8 9 7 6 6 9 11 12 18 23 24 28 23 11 18 23 28 33 37 41 43 44 44 45 47 47 48 49 49 49 48 47 47 45 44 43 42 42 42 42 42 42 42
4 6 4 3 6 4 5 7 8 9 4 6 8 7 14 18 15 13 12 11 12 12 8 8 8 5 9 15 24 31 29 29 26 11 11 19 24 28 31 36 40 41 42 43 44 45 46 46 45 45 45 44 43 42 41 41 41 41 41 40 41 40 40
2 3 2 4 4 2 4 5 8 10 5 7 10 7 14 19 17 15 15 13 14 13 11 12 8 2 5 16 27 35 32 29 27 17 2 13 20 25 29 33 37 39 42 43 43 43 44 44 43 43 43 43 42 41 40 40 39 39 40 39 39 39 39
2 2 3 1 2 2 3 3 5 7 5 8 8 3 8 14 15 15 14 14 15 14 15 17 10 2 3 12 21 32 34 29 25 19 7 8 16 20 25 29 32 35 37 39 40 41 41 42 41 41 42 41 40 39 38 39 38 38 38 38 38 38 38
1 2 3 1 2 3 1 2 6 10 10 10 8 3 2 10 17 19 15 13 16 15 16 22 16 5 3 7 12 25 33 29 25 21 14 9 14 17 21 24 27 29 31 33 35 36 37 38 38 38 39 39 38 37 37 37 37 37 37 36 36 36 35
2 2 2 1 2 3 2 7 12 16 16 10 5 4 3 9 18 23 18 14 17 16 17 22 16 6 7 5 9 22 28 27 26 24 20 15 15 19 20 22 23 25 27 29 30 32 33 34 35 35 36 36 35 35 35 35 36 36 36 34 33 32 31
4 4 2 2 1 1 6 11 15 21 19 7 4 3 3 9 17 23 20 17 19 21 21 19 12 8 7 5 11 20 24 25 28 27 24 21 18 19 21 23 23 23 25 27 28 29 31 31 32 32 32 33 33 33 33 33 34 34 33 31 28 27 27
5 5 2 2 1 2 9 14 19 24 16 2 4 2 2 9 17 21 21 21 22 24 22 17 12 11 12 11 14 21 27 29 29 28 26 25 22 22 22 24 25 25 26 26 27 27 27 27 28 28 28 29 30 31 31 31 32 31 29 27 26 25 26
3 3 1 0 2 4 14 17 19 20 8 3 3 5 7 12 19 21 22 23 25 26 23 19 18 19 19 20 24 30 32 30 29 29 28 27 26 25 24 25 26 27 28 27 26 26 25 25 26 26 26 27 28 28 29 29 28 27 25 25 25 25 25
2 0 1 1 2 7 19 17 12 13 8 3 7 10 13 18 22 24 25 24 27 29 26 22 23 25 26 30 34 36 34 31 29 28 27 27 27 26 26 26 26 27 28 27 26 24 23 24 25 25 26 27 27 27 28 27 27 26 25 26 26 26 27
2 1 3 3 1 8 18 14 5 7 7 8 13 15 15 19 24 25 26 26 28 31 29 26 26 28 31 35 37 36 34 32 30 28 26 25 26 25 24 24 25 27 29 29 27 25 23 23 24 26 27 28 28 28 28 26 26 25 25 25 26 26 27
3 1 3 4 3 11 17 12 6 7 9 13 19 20 18 21 25 25 26 29 31 31 30 29 28 29 31 34 35 35 33 32 30 28 25 24 23 24 22 20 20 23 26 28 28 28 27 26 26 27 28 29 29 28 27 25 23 23 22 22 22 23 23
4 0 5 6 9 17 19 10 5 7 9 13 22 24 21 23 24 23 24 28 30 30 29 29 30 30 30 30 32 34 34 32 31 28 25 23 22 23 23 21 18 18 20 23 25 27 27 26 26 27 27 27 27 27 26 25 23 22 22 22 22 22 22
6 1 6 10 18 24 18 6 2 6 10 15 23 26 24 24 23 22 22 24 25 25 25 26 28 29 29 29 30 32 33 31 30 28 26 24 22 22 23 23 21 19 19 21 22 23 23 22 22 23 24 25 25 24 24 24 23 23 22 22 23 23 22
6 1 6 18 22 16 6 5 3 10 18 23 29 31 29 27 25 22 20 21 22 21 21 24 26 26 27 28 28 29 31 31 28 27 26 23 21 20 21 22 22 22 22 22 22 22 21 20 19 19 19 19 18 18 18 19 19 19 19 20 20 20 21
4 2 9 20 17 9 10 10 13 20 26 30 32 33 31 30 28 24 20 19 18 16 17 21 24 23 25 26 25 24 28 29 28 26 24 22 20 19 19 19 20 20 21 20 21 21 21 20 20 20 20 18 16 13 12 11 11 12 13 14 15 15 16
4 5 11 16 10 4 10 19 22 24 27 29 30 31 31 29 27 25 22 20 17 13 11 16 21 22 22 22 20 19 23 27 27 26 23 21 18 16 16 17 17 17 18 17 17 18 19 19 19 19 20 19 18 16 13 11 8 7 8 9 11 11 11
7 11 15 16 12 11 16 21 23 25 27 27 28 29 28 27 25 23 21 21 18 13 10 12 17 19 19 17 16 16 19 23 25 25 23 21 18 15 14 13 14 15 15 14 14 15 15 16 16 17 17 17 16 15 14 12 10 7 7 8 9 10 9
11 16 20 20 17 17 20 23 25 25 24 24 26 26 25 25 23 20 20 21 18 15 13 13 14 16 16 13 13 14 17 21 23 24 23 21 17 14 11 10 11 12 13 12 12 12 12 13 14 14 14 15 14 13 12 11 10 9 8 8 9 10 9
15 20 24 23 20 20 21 22 22 21 20 21 24 24 23 23 22 20 21 22 18 16 16 15 14 14 12 10 10 12 15 18 21 22 22 20 17 15 11 10 10 10 11 11 11 10 11 12 13 13 13 13 12 11 11 10 9 9 10 9 9 10 10

ECMWFFLT2_850_spd_048.txt.gz
Wind_Speed
10 15 16 18 16 10 8 12 13 12 12 11 9 9 9 8 9 8 8 9 8 6 5 7 10 11 14 19 21 23 24 23 21 20 21 23 24 25 26 28 30 32 33 34 35 36 36 37 39 41 42 44 45 46 46 46 44 43 43 43 42 40 39
10 7 10 15 18 14 8 10 12 11 13 12 9 8 8 9 10 7 9 12 11 8 7 9 15 17 16 16 18 20 25 28 26 23 22 23 24 25 26 28 30 32 33 35 36 36 37 40 42 44 45 45 45 46 47 46 45 44 44 43 42 41 40
8 5 9 13 17 20 16 10 10 11 12 11 10 9 9 10 10 8 10 13 11 9 7 5 11 17 18 17 17 17 20 23 27 28 26 25 24 24 25 27 29 30 33 35 36 36 37 39 41 42 43 43 43 45 46 45 44 43 43 43 42 41 41
7 6 10 11 13 18 18 14 11 11 11 10 10 9 8 9 9 8 10 11 9 9 10 8 8 11 14 15 15 16 17 20 24 27 28 28 27 26 25 25 27 29 32 35 36 37 37 38 39 39 40 41 42 43 44 44 43 43 43 43 42 42 41
7 7 10 13 13 14 15 14 13 11 10 10 11 10 10 9 9 7 7 8 7 6 8 11 9 8 10 12 12 13 15 20 23 24 26 27 28 29 27 26 27 29 32 34 36 37 36 36 36 36 38 39 40 40 42 43 43 43 43 43 43 43 42
8 11 13 15 14 11 10 12 15 15 12 11 12 12 13 11 9 8 7 6 4 3 4 8 9 9 10 11 12 12 14 19 21 22 24 25 26 27 28 29 29 29 32 34 35 35 34 34 35 36 37 38 38 39 40 41 41 42 43 43 45 44 43
10 15 14 12 12 11 9 9 13 16 15 13 13 13 13 12 11 10 8 8 4 3 3 4 5 6 7 10 12 12 15 18 20 21 23 24 25 26 27 28 29 29 31 33 33 33 34 35 37 38 38 38 39 40 40 39 41 43 42 42 44 45 44
11 17 19 16 14 12 10 10 11 13 16 17 12 9 8 10 13 12 8 8 7 3 3 3 3 5 6 7 8 9 11 14 17 21 23 24 25 26 26 26 27 28 28 29 30 32 35 37 37 37 38 38 39 39 38 39 40 42 41 40 41 44 44
9 11 14 14 13 10 9 12 14 13 15 15 10 6 5 7 13 15 11 9 7 4 5 6 6 9 10 9 9 9 10 11 12 13 17 21 24 25 25 25 25 26 26 27 30 33 36 37 36 37 38 38 37 38 39 40 39 39 39 38 39 41 43
9 8 6 7 8 6 8 15 18 14 13 14 11 8 8 9 12 14 12 9 7 5 6 7 7 10 11 8 7 6 5 6 5 2 4 9 13 16 17 19 21 22 24 27 31 35 38 38 37 37 39 38 37 38 39 39 37 38 39 38 38 39 41
11 8 6 7 8 7 8 12 14 12 12 13 11 9 10 11 10 12 12 10 9 7 6 6 7 6 4 1 3 4 5 5 3 3 2 2 6 9 12 14 17 19 22 25 29 34 37 37 37 38 39 38 37 38 38 37 36 37 38 38 38 39 40
18 18 16 14 13 13 12 11 11 10 9 10 13 13 14 13 9 11 14 13 13 12 6 1 0 2 5 6 6 7 7 7 6 5 2 1 5 7 10 14 17 20 23 25 28 33 34 34 34 35 36 37 37 37 38 37 36 37 38 38 39 39 39
20 22 21 17 14 14 15 14 14 13 9 10 14 15 18 18 12 11 12 10 13 15 7 4 7 8 8 7 7 8 8 9 9 8 5 3 2 4 8 14 19 22 25 27 30 34 34 33 33 33 33 35 35 35 36 36 36 36 37 38 38 39 40
18 21 22 20 17 17 17 16 16 16 13 13 13 13 16 19 16 14 11 9 9 6 3 8 9 11 10 8 9 10 11 12 13 12 10 9 7 5 3 8 16 22 25 28 31 35 35 34 35 34 33 34 35 35 36 37 37 37 37 38 39 40 41
13 17 20 20 19 18 17 17 17 17 15 15 15 14 15 17 18 17 15 15 10 2 9 11 11 11 11 10 12 12 13 15 16 16 15 14 13 12 10 8 9 16 22 27 30 34 37 38 37 36 35 35 36 36 36 38 38 38 38 40 41 42 42
10 13 17 20 19 18 19 19 18 17 16 14 10 8 9 11 14 16 15 15 10 4 11 11 9 8 9 10 12 14 15 17 18 18 18 18 18 17 15 14 12 13 17 24 28 33 38 39 38 38 37 36 36 36 36 38 38 38 38 39 42 43 42
9 11 15 16 15 15 16 15 15 16 16 10 5 4 4 4 6 10 11 8 4 8 10 9 8 8 7 9 11 13 15 17 18 18 19 20 20 20 19 18 17 17 17 20 27 32 36 38 39 40 40 39 39 39 38 38 37 37 37 38 40 42 41
8 11 13 11 12 13 10 8 11 18 18 11 9 8 7 3 1 3 3 2 7 10 9 9 9 9 9 9 7 9 13 15 18 19 20 21 22 22 21 20 20 20 19 20 25 30 33 36 38 39 39 39 38 37 35 35 36 37 36 36 38 42 43
7 10 10 9 11 10 4 2 3 11 14 13 12 8 4 2 1 2 2 3 7 9 10 11 11 11 12 8 3 10 13 15 18 20 21 22 23 23 23 22 22 22 22 21 24 28 31 33 34 35 35 35 34 33 34 35 36 37 37 36 37 41 43
6 7 8 8 5 3 0 5 9 5 6 13 12 7 5 3 2 1 2 4 7 10 13 13 12 12 12 8 4 13 18 17 18 21 23 24 24 24 24 24 24 25 24 22 23 27 29 30 31 34 35 34 33 33 34 34 35 36 37 37 37 40 43
6 6 8 8 7 6 3 3 8 8 2 2 2 2 4 3 4 3 3 5 8 12 14 15 15 14 11 11 3 15 24 22 20 21 23 24 24 24 24 25 24 24 22 21 21 24 26 28 31 33 34 33 33 33 32 33 34 36 36 38 40 42 42
6 7 7 8 10 9 4 2 8 12 11 11 11 5 3 3 5 5 4 6 9 11 14 17 17 11 10 11 1 18 28 26 24 23 22 21 22 24 25 24 23 21 17 17 19 21 25 28 31 31 32 32 32 32 33 33 34 35 37 40 43 43 41
6 7 6 6 8 4 3 7 10 14 16 15 12 7 4 2 5 6 6 7 9 11 13 16 15 6 7 5 6 22 30 29 28 28 26 22 23 24 23 21 21 18 14 14 17 20 24 28 30 31 32 33 33 33 34 33 34 35 38 41 43 41 39
8 8 6 6 6 1 8 11 13 16 17 13 7 6 5 4 4 6 8 8 9 12 13 13 10 5 2 5 13 24 30 29 28 29 27 24 24 23 21 20 19 14 11 12 17 20 24 28 29 31 32 33 34 35 34 33 34 36 39 40 40 39 38
9 9 7 7 6 2 9 14 14 13 12 7 4 3 1 4 4 6 9 9 10 12 12 10 8 7 9 12 18 24 28 29 29 29 27 23 20 18 18 17 16 11 8 12 17 19 24 28 29 31 33 33 34 35 36 35 35 36 37 38 38 38 38
7 8 7 7 5 3 13 17 12 8 5 3 0 3 3 4 6 6 8 9 11 11 11 10 10 12 14 16 19 22 26 28 29 30 28 25 20 16 13 12 11 8 6 10 15 18 22 28 30 31 33 34 35 37 38 38 37 35 33 34 37 37 36
6 7 6 6 4 6 16 16 9 7 5 3 6 8 4 4 7 7 7 9 11 12 12 12 14 16 17 18 21 23 26 28 29 30 30 28 24 17 12 11 9 6 3 6 11 17 21 24 27 28 31 34 37 38 39 38 34 31 32 34 35 35 34
3 5 4 3 4 10 16 12 4 4 4 6 11 12 8 6 7 9 9 9 10 12 13 14 16 17 18 21 23 24 27 29 31 30 30 29 26 21 16 11 6 2 2 3 5 12 19 22 23 25 29 34 38 38 36 35 32 30 32 34 33 34 33
2 2 2 5 8 12 13 8 5 5 7 11 15 14 11 9 9 10 12 12 12 13 14 15 17 17 19 23 24 24 27 30 32 32 31 30 28 25 20 13 8 5 1 4 4 8 14 19 21 22 25 30 35 35 32 32 32 30 31 33 33 33 32
3 3 3 8 13 14 9 7 10 11 12 15 18 16 14 13 11 11 13 13 13 13 13 15 17 19 21 25 25 25 27 30 33 33 32 30 28 26 23 18 14 9 3 3 6 7 10 13 15 17 19 23 29 31 29 30 31 30 30 32 31 30 29
6 2 3 11 18 15 6 6 13 16 15 17 19 18 16 15 14 14 14 13 13 12 11 13 17 20 22 24 26 26 27 30 33 34 32 31 28 26 24 22 18 14 9 5 6 8 9 10 10 12 14 16 21 27 28 28 29 30 31 31 29 28 28
6 2 7 18 20 10 2 8 16 19 19 20 21 20 18 17 16 14 13 13 12 12 12 13 16 20 21 22 26 27 27 29 31 33 32 30 28 26 24 23 22 18 14 10 8 8 9 10 10 11 12 14 16 22 27 27 27 29 31 30 28 27 27
6 4 10 20 16 5 5 15 19 18 21 22 22 21 19 17 16 14 13 13 12 12 13 13 15 19 21 22 25 26 26 27 30 31 31 29 28 27 23 22 23 22 19 16 13 10 9 8 8 9 11 13 14 19 24 26 26 27 29 28 26 25 25
6 7 12 17 12 6 12 21 20 19 21 22 20 21 20 18 17 16 15 15 14 11 11 11 13 16 19 21 24 25 25 26 28 29 30 29 29 27 21 19 23 25 23 22 19 17 14 10 9 8 8 10 11 14 17 20 22 24 24 25 24 22 22
8 12 17 17 13 12 15 19 20 20 21 20 20 22 21 20 19 17 16 17 16 12 10 11 11 14 17 19 22 24 24 24 26 26 27 29 30 28 22 19 20 23 24 24 23 21 18 15 13 11 10 9 8 8 11 12 15 17 18 20 22 19 17
12 16 19 18 17 17 17 19 20 19 19 20 21 22 21 20 19 17 15 16 16 14 14 13 11 12 14 16 18 21 22 23 23 24 24 26 28 27 25 21 19 20 22 21 20 20 19 17 17 15 14 13 10 8 9 10 11 13 14 16 17 15 14
14 17 19 18 18 18 18 18 18 17 18 21 22 21 20 20 19 17 16 15 14 15 16 16 14 12 12 14 15 17 19 20 21 21 22 23 25 27 26 23 20 20 20 18 17 18 18 17 17 17 15 14 12 8 7 8 9 12 14 14 14 11 10